GFSSGP_700_rhum_030.txt.gz
RH
9 9 12 27 30 40 26 22 52 56 68 78 81 89 75 73 74 67 56 70 66 73 64 56 54 53 45 41 39 33 30 19 16 18 19 19 16 10 6 4 4 7 11 15 16 16 17 13 10
13 9 11 11 23 23 32 35 52 53 65 72 78 79 81 87 75 66 66 59 54 73 70 61 57 52 44 41 37 17 15 16 17 18 18 15 8 4 4 9 15 18 19 20 21 21 21 21 20
7 8 9 10 15 26 35 44 59 62 66 60 60 62 61 72 56 59 63 66 50 52 67 65 61 53 44 40 15 16 20 17 13 13 11 4 5 10 14 18 22 24 26 26 27 28 28 28 27
6 7 12 19 14 16 25 54 59 64 61 61 62 65 67 64 58 65 51 37 42 58 66 68 63 50 43 15 18 22 11 5 6 4 4 8 16 22 24 26 27 26 24 24 23 23 23 23 24
7 4 12 14 41 40 24 59 59 64 56 50 51 49 44 57 45 56 48 38 47 58 65 68 60 45 19 20 23 10 3 3 3 7 18 25 27 27 28 28 28 28 28 27 25 24 22 22 22
22 6 14 30 53 49 30 54 63 67 67 54 47 50 62 40 35 29 40 52 60 64 58 60 39 16 22 25 9 4 4 6 17 25 27 32 35 36 35 34 33 32 30 31 32 30 26 22 24
16 14 16 44 52 60 58 60 69 72 71 46 50 38 29 49 30 31 40 56 49 60 37 16 18 25 26 10 4 9 14 24 26 32 36 36 36 36 37 40 40 38 39 39 39 38 34 28 25
17 16 21 24 48 57 59 60 71 48 45 46 47 37 27 20 30 35 35 35 34 16 16 22 26 23 11 5 12 20 25 28 36 37 37 36 34 33 35 38 43 43 44 44 45 44 40 37 36
25 19 21 20 28 59 61 59 57 57 52 49 40 36 26 20 27 26 21 17 15 17 22 23 20 14 8 15 22 27 29 36 38 38 36 36 36 36 37 39 42 43 45 46 50 51 46 41 38
18 24 21 17 35 41 37 33 42 65 48 38 37 36 24 16 24 22 21 19 17 20 20 16 12 9 17 24 30 31 34 37 39 39 38 37 37 38 38 44 47 46 47 51 54 57 53 50 50
19 18 20 17 33 36 38 41 54 41 28 22 27 35 22 15 20 23 22 33 30 41 36 28 15 19 24 30 34 33 35 38 36 36 37 37 38 40 42 51 53 53 54 55 58 60 61 62 60
18 16 15 26 32 34 30 33 43 25 22 19 21 28 21 16 18 23 25 30 49 44 55 67 64 55 60 44 34 36 40 47 44 40 41 42 42 45 49 56 58 58 58 60 60 62 65 67 66
18 14 15 27 26 21 25 25 19 20 22 21 22 24 24 16 21 30 27 47 55 53 60 74 73 64 67 58 58 56 59 50 50 50 48 46 46 48 52 58 61 64 66 65 65 66 67 67 71
12 12 14 20 18 15 16 18 15 17 19 21 25 31 41 42 33 32 26 44 53 70 76 77 89 86 80 82 82 72 68 60 54 47 44 46 52 55 58 60 66 72 71 68 67 68 70 66 61
11 11 12 13 13 13 19 16 14 15 16 19 25 36 47 52 54 55 55 57 64 84 86 93 92 83 78 76 80 81 79 71 59 53 54 59 59 60 64 74 80 81 74 70 72 77 73 66 72
14 9 13 13 12 12 12 11 12 16 16 19 24 37 48 52 66 64 63 70 69 82 91 89 82 86 87 91 79 92 68 76 64 60 60 62 65 68 79 84 88 84 79 84 86 78 73 80 74
20 21 17 14 14 14 14 17 17 20 19 19 23 24 40 55 64 71 70 72 73 75 88 83 87 93 100 99 95 99 82 72 67 64 73 83 84 88 95 99 97 86 85 83 78 76 73 62 57
17 20 21 22 22 21 16 16 24 26 22 20 22 22 27 41 55 67 73 73 65 70 78 85 95 99 86 98 97 87 75 74 72 81 85 85 95 98 99 94 91 87 77 66 63 62 62 58 49
21 21 22 22 22 23 24 26 26 22 24 20 23 23 25 27 38 55 69 73 77 77 79 94 97 91 92 86 76 77 72 70 68 68 73 85 99 96 88 78 64 55 53 50 49 48 46 44 39
22 23 24 25 22 23 24 25 24 22 24 20 22 25 26 28 29 37 55 68 77 85 83 98 90 85 73 69 64 63 61 56 60 67 66 66 63 61 60 60 47 42 40 42 42 37 31 26 24
24 26 28 28 28 26 25 27 26 24 24 22 23 24 26 29 31 34 42 54 69 73 68 54 61 63 63 55 47 49 51 54 56 55 54 52 51 49 45 41 38 38 37 32 18 12 14 15 16
28 30 32 31 31 29 30 34 36 32 25 23 24 28 36 43 51 59 63 65 54 49 52 52 58 49 48 50 56 52 51 56 50 44 41 38 37 35 33 38 39 26 16 14 15 17 22 30 30
27 33 33 31 30 28 36 36 41 41 38 35 37 44 54 67 76 67 58 57 52 49 56 56 56 54 56 61 68 56 62 68 59 49 43 39 38 39 39 28 15 12 10 10 11 21 39 44 40
31 28 32 40 44 51 53 45 43 38 37 39 50 60 70 67 64 66 63 59 61 71 79 84 70 68 69 67 63 69 74 77 55 47 37 33 28 24 16 12 11 10 13 19 28 41 47 72 69
34 38 46 59 67 70 55 53 42 45 47 53 50 58 60 62 65 66 65 72 73 76 74 71 79 82 82 69 71 83 84 60 46 36 27 17 12 11 10 11 15 22 32 43 31 60 69 83 84
40 42 46 57 77 62 49 55 48 47 58 60 60 59 60 66 68 64 62 70 76 75 79 78 84 91 86 81 78 72 56 48 40 27 15 10 10 10 10 14 36 52 56 58 58 71 95 95 86
40 30 39 42 54 57 56 58 50 47 53 53 58 58 61 63 63 62 63 66 68 72 81 91 97 93 89 69 56 55 52 42 25 13 10 10 10 15 39 54 67 52 84 98 95 98 94 89 65
47 42 39 38 56 53 54 62 51 48 49 53 58 58 61 56 58 63 66 66 72 82 91 98 98 90 75 66 52 50 38 18 11 12 15 20 32 61 87 61 32 38 61 79 87 98 93 93 97
40 36 29 30 43 62 75 52 41 52 57 57 60 62 62 67 71 73 73 76 82 89 95 97 90 80 92 55 48 32 14 11 13 19 36 63 76 66 26 19 22 32 48 61 62 61 93 93 96
43 41 28 21 35 48 51 34 33 42 59 64 64 68 68 71 77 76 74 81 91 98 94 96 94 94 58 46 27 13 12 15 27 39 36 34 14 11 12 17 32 41 56 52 59 100 98 100 100

GFSSGP_700_rhum_033.txt.gz
RH
8 8 10 25 29 40 38 23 41 56 77 86 96 94 79 73 74 75 62 72 78 72 67 61 60 58 54 47 42 30 25 17 16 17 19 19 13 6 5 10 16 19 20 21 21 21 21 21 20
10 8 9 20 30 30 35 36 37 60 75 96 96 90 86 81 78 73 72 67 62 74 66 61 59 58 49 45 37 16 15 18 19 18 15 13 5 7 15 19 22 24 25 25 25 25 25 26 27
8 7 9 10 16 24 32 49 43 72 78 81 76 77 80 89 88 89 69 74 87 74 63 60 59 50 47 43 15 18 20 14 10 11 7 6 15 21 24 26 26 25 24 24 23 23 23 23 22
6 6 9 13 15 17 30 56 67 80 92 87 78 78 62 68 71 69 93 90 76 84 74 65 60 50 45 16 20 21 10 5 4 4 13 22 26 27 27 28 29 29 29 28 27 26 25 23 22
4 7 13 13 34 30 23 55 59 65 73 86 67 54 56 45 63 80 97 78 68 79 69 61 56 47 19 22 23 10 3 3 7 22 26 32 35 35 35 34 34 33 33 35 36 34 32 32 28
5 9 12 44 49 41 38 59 72 64 70 65 64 57 49 46 84 90 77 68 77 72 59 58 52 22 24 26 10 4 4 12 25 30 36 36 35 34 36 38 39 40 40 40 40 40 39 36 34
10 12 18 54 67 74 58 76 69 68 64 52 56 62 46 47 60 58 68 69 64 62 61 52 19 26 28 11 4 7 17 26 33 37 37 34 33 34 36 35 38 41 39 39 41 47 46 42 39
16 15 24 53 54 69 86 77 74 55 55 55 64 47 29 40 46 54 61 50 45 46 26 18 29 27 13 5 10 21 27 35 38 38 37 36 36 36 39 40 44 44 43 43 44 51 53 49 46
19 19 21 29 40 60 65 70 70 51 46 58 56 38 24 39 27 36 38 30 23 16 18 27 25 14 8 16 25 29 35 38 39 39 38 39 39 40 41 42 45 45 46 47 49 50 52 54 54
20 21 20 22 20 41 44 42 48 50 74 65 55 36 22 25 26 26 22 18 16 20 23 22 17 12 21 28 31 35 38 40 41 41 39 40 38 39 43 43 44 48 50 54 57 58 56 55 54
19 21 20 20 31 48 44 56 42 53 60 47 43 40 23 24 24 19 17 19 22 24 24 17 13 23 31 35 37 37 39 42 42 42 40 40 42 42 46 47 51 55 57 61 64 65 62 58 59
17 18 19 26 36 37 53 51 40 39 31 19 24 36 20 21 23 22 22 25 45 50 54 23 39 44 37 38 38 40 44 50 53 52 49 47 45 47 50 55 57 61 66 70 73 71 69 65 62
19 18 16 25 42 44 48 38 33 29 26 22 19 22 23 23 26 27 37 54 58 66 78 75 67 79 69 46 44 48 59 60 56 54 50 50 54 55 57 59 64 78 82 82 78 72 69 65 65
18 14 19 30 38 41 34 27 32 29 25 25 38 33 21 20 34 28 36 62 66 82 81 89 82 79 86 77 60 71 74 69 70 67 71 67 62 63 61 62 75 84 80 80 77 71 60 56 54
13 13 19 26 27 27 26 22 18 20 23 28 41 44 39 37 43 36 38 66 81 85 82 91 88 92 93 89 84 82 85 76 84 75 73 71 71 71 72 76 86 80 76 77 68 60 72 78 68
12 13 14 14 15 19 20 19 17 19 21 25 28 34 36 38 40 45 56 73 80 89 93 87 82 87 95 92 90 97 90 88 85 77 78 83 82 80 79 81 74 72 74 61 64 70 67 55 46
17 10 13 15 13 13 15 15 15 20 21 23 25 28 38 48 59 59 59 70 80 84 90 89 82 85 89 99 98 93 84 85 82 78 79 78 74 76 75 77 84 81 73 79 78 60 52 47 41
19 22 18 14 14 14 15 16 24 24 20 21 22 23 26 37 51 65 72 71 70 69 69 76 86 96 100 86 87 80 76 79 77 74 72 70 71 81 87 82 79 80 78 65 60 49 43 40 36
18 20 21 22 22 22 24 20 25 27 24 23 20 22 25 29 40 59 71 75 75 71 71 94 100 99 96 83 68 65 65 61 55 50 53 56 54 52 52 55 59 61 64 57 42 33 24 15 11
21 24 25 27 23 23 23 25 25 24 22 23 22 22 26 34 41 45 60 70 76 81 88 97 96 90 67 62 54 53 54 56 56 56 55 48 42 42 43 42 39 36 30 23 16 11 10 9 8
22 25 27 26 26 24 24 25 25 22 21 23 23 22 27 36 44 53 54 53 61 70 73 63 51 50 56 49 58 68 71 56 52 55 51 46 44 41 38 37 32 21 13 10 9 9 8 8 8
26 30 30 29 28 28 28 27 25 24 23 24 24 22 29 28 32 42 55 62 60 58 50 42 50 58 66 72 77 70 54 58 65 64 54 48 44 41 33 22 13 10 9 9 8 9 11 14 15
24 33 33 32 31 30 32 34 29 28 26 25 24 23 28 44 53 62 66 62 57 52 57 74 70 76 82 74 75 61 59 61 58 55 49 46 40 28 16 11 10 9 9 9 7 8 9 16 22
31 31 34 37 39 44 35 38 30 27 26 32 33 39 49 58 68 66 66 59 54 62 72 74 72 72 76 78 78 71 64 63 53 50 48 38 23 13 10 10 9 9 7 6 6 10 34 60 40
30 30 44 49 58 54 53 55 41 39 38 41 42 48 59 70 69 67 65 65 66 67 75 73 71 79 82 88 88 78 69 60 53 48 36 18 12 10 10 9 8 8 11 10 10 12 64 97 57
39 40 38 53 62 56 54 57 44 42 40 51 62 65 66 64 62 61 64 66 69 64 64 73 83 86 93 100 99 80 79 56 49 35 19 12 11 11 9 10 14 16 12 10 17 22 66 57 73
41 37 40 41 54 51 47 50 40 38 40 51 61 62 62 60 59 64 62 62 66 64 72 82 89 94 100 99 91 94 72 51 37 20 12 12 10 8 7 9 8 8 10 16 31 41 56 57 100
43 41 39 38 54 46 45 48 33 31 39 49 54 54 57 59 62 62 62 63 66 71 80 89 99 100 100 97 94 74 52 37 22 14 12 10 8 7 6 6 8 10 14 31 42 49 46 64 81
43 45 31 28 36 41 48 30 19 19 38 47 50 52 58 62 62 60 63 72 76 81 90 98 100 98 100 95 74 56 47 24 15 12 10 8 6 6 6 8 10 15 28 33 52 52 58 72 93
37 36 27 25 31 42 46 26 20 19 23 44 59 60 62 63 61 57 70 78 84 90 100 99 93 99 97 76 67 54 26 15 12 10 7 6 6 6 8 10 14 22 37 30 39 55 47 59 94

GFSSGP_700_rhum_036.txt.gz
RH
8 9 10 14 30 29 26 26 46 76 79 88 90 98 98 90 94 83 74 80 72 79 62 60 58 56 52 48 44 36 30 18 16 18 19 16 8 4 13 18 20 22 24 24 24 23 23 22 23
8 7 9 28 27 22 22 31 44 88 92 97 98 93 89 82 77 71 87 78 79 69 63 63 62 55 51 47 34 17 17 20 18 15 14 8 8 17 22 25 26 24 24 24 24 24 23 22 22
8 9 15 20 19 20 25 45 82 94 92 86 82 72 81 89 81 84 79 69 61 69 69 65 63 52 50 46 15 20 18 12 10 10 6 13 21 25 25 26 28 29 28 28 30 31 30 28 24
7 7 9 19 17 21 43 75 90 65 76 81 74 75 76 82 90 85 82 81 82 86 72 65 56 53 52 17 21 17 7 6 5 7 20 26 27 32 32 32 33 33 36 37 36 35 34 31 30
7 13 17 17 22 33 41 79 87 84 62 78 79 64 72 66 61 69 74 92 95 83 69 65 64 54 30 20 21 8 5 4 11 25 28 34 34 35 36 37 38 38 38 37 36 37 38 37 34
17 15 16 17 32 55 51 77 82 89 75 67 58 65 62 60 70 64 80 97 90 80 74 71 57 36 19 24 11 4 4 16 27 33 35 34 33 33 36 39 39 38 38 37 37 37 40 43 41
20 16 17 34 48 63 78 84 78 76 68 52 53 86 63 61 88 67 50 78 89 80 77 63 42 19 27 15 5 4 16 28 35 36 34 34 35 36 37 38 40 40 42 41 40 40 46 52 50
22 21 32 44 51 71 83 86 80 65 66 52 58 82 59 57 64 92 84 77 71 80 75 40 20 30 19 6 6 14 29 35 38 38 38 39 40 41 42 41 41 42 45 46 46 49 48 50 52
12 23 28 49 62 74 72 72 60 56 58 63 59 54 48 59 53 72 66 66 65 69 31 21 31 20 7 9 14 28 33 40 40 40 41 43 44 44 45 43 44 48 50 50 52 50 52 51 46
24 26 23 31 43 43 44 52 55 43 53 58 58 56 37 54 41 62 54 54 48 20 22 30 24 10 15 20 29 33 40 41 43 44 44 44 45 47 48 49 52 53 54 56 59 60 56 53 51
26 26 24 26 35 44 51 56 54 63 64 63 60 58 26 42 42 53 49 20 18 23 25 26 16 18 27 31 35 40 42 44 45 44 46 49 50 51 55 57 61 61 62 66 69 70 63 60 54
27 23 21 20 37 44 44 54 51 66 47 48 57 51 25 31 28 19 17 18 24 34 24 18 20 28 33 36 42 44 45 46 49 54 62 59 60 60 62 64 70 73 77 78 77 73 64 58 53
21 24 23 40 41 37 45 54 61 57 24 19 34 30 26 23 19 19 26 43 52 51 24 26 33 36 41 43 45 45 46 54 64 69 73 80 73 73 74 75 76 81 77 77 76 70 62 53 46
20 20 23 33 40 40 44 50 62 30 28 21 16 24 24 23 24 27 37 61 71 79 64 53 72 74 50 44 43 45 54 80 78 82 95 96 84 79 81 79 77 76 70 69 64 60 61 54 50
17 14 23 28 36 40 44 50 32 31 28 32 24 29 29 29 28 36 56 73 81 85 82 88 79 77 83 75 58 70 88 76 68 80 90 87 82 85 87 80 75 69 68 59 60 65 67 64 58
17 18 21 30 25 31 31 22 19 27 28 37 36 30 33 35 33 34 56 75 81 84 86 89 80 76 86 90 93 90 98 86 84 88 84 85 86 85 80 71 68 67 61 67 75 74 72 64 57
17 15 15 19 21 23 19 19 17 21 27 37 40 41 41 41 41 46 54 69 77 84 86 91 85 78 83 98 100 100 83 72 71 73 81 83 78 66 56 57 64 71 71 74 72 67 54 46 36
18 14 15 15 17 21 20 19 16 20 25 27 29 39 44 49 51 52 54 63 73 79 83 89 94 94 99 99 98 73 85 69 70 62 58 53 47 46 48 53 62 58 51 45 43 38 30 18 12
17 22 19 21 14 22 21 23 21 24 22 21 24 31 35 43 49 64 68 69 73 76 82 91 97 93 96 80 60 65 57 45 45 46 48 51 49 49 48 45 42 40 39 35 23 12 11 11 9
22 24 27 22 21 21 24 23 20 26 25 24 23 25 29 34 39 45 59 68 73 77 83 88 80 64 51 58 46 46 54 66 62 63 64 58 53 46 43 42 40 34 21 12 11 10 8 7 6
29 28 28 29 23 25 30 36 24 24 24 22 23 25 26 35 40 50 58 64 69 77 78 76 54 48 51 60 69 70 76 66 64 66 67 63 51 47 46 40 28 14 11 10 9 7 6 4 4
30 25 27 26 29 23 25 20 35 24 23 22 21 25 29 29 36 46 39 49 64 66 64 50 61 65 69 75 82 87 86 85 78 74 65 55 50 48 40 22 13 11 10 8 6 5 4 4 4
32 26 31 33 31 32 32 26 28 28 28 27 24 25 28 30 32 33 52 68 64 58 52 67 59 71 72 74 83 86 93 92 84 71 63 53 49 38 19 13 11 10 7 6 5 4 5 8 11
26 30 34 36 37 30 30 34 16 25 40 33 27 28 27 27 36 53 65 61 59 56 59 66 75 76 75 82 86 90 96 93 79 79 66 51 38 19 14 12 9 7 6 5 29 38 28 64 97
34 36 27 34 36 31 47 38 21 31 30 35 33 36 33 41 53 64 64 63 67 68 67 63 71 77 84 89 91 88 98 91 85 84 54 40 22 17 12 9 7 6 6 7 25 95 95 92 91
40 35 27 26 31 30 52 37 37 34 38 40 41 48 47 52 63 66 62 65 66 62 67 69 73 80 87 95 91 100 97 93 86 57 46 28 17 11 9 7 6 6 6 6 7 87 89 95 62
40 37 42 46 46 50 31 41 38 37 36 38 46 49 55 61 64 63 63 69 61 65 67 72 79 87 94 95 97 98 96 90 63 51 33 19 12 10 7 6 5 5 6 7 13 85 77 75 48
45 41 42 43 43 30 23 28 22 29 31 36 47 50 59 64 62 61 66 64 63 68 75 84 87 90 89 100 98 97 96 71 53 35 20 12 10 8 6 5 5 6 7 11 16 70 77 92 50
48 48 39 38 36 26 23 15 18 16 20 34 44 50 58 61 62 62 68 63 63 73 82 89 96 99 99 97 98 97 80 54 37 19 13 11 9 7 6 6 6 8 10 17 30 42 63 53 56
34 45 43 29 33 49 48 20 14 12 12 17 32 55 59 59 64 65 69 66 68 78 86 94 95 94 100 99 97 72 58 39 20 13 12 10 9 7 6 7 8 10 16 25 39 45 43 55 64

GFSSGP_700_rhum_039.txt.gz
RH
8 11 10 13 24 25 22 20 24 56 71 87 81 78 80 74 70 72 80 66 82 79 78 59 50 48 44 42 41 42 36 22 16 19 20 15 6 7 17 20 23 23 23 22 23 23 23 22 22
8 8 8 26 25 20 18 22 30 76 93 90 84 86 90 89 79 80 80 97 80 84 68 59 57 52 44 45 34 24 16 19 20 18 14 6 11 20 23 23 24 27 27 27 29 29 29 27 25
8 8 23 21 22 19 20 38 74 78 79 86 82 93 79 86 79 79 89 85 86 71 65 65 57 53 46 45 17 18 20 13 11 11 7 17 24 25 28 30 30 31 34 35 34 33 33 30 27
8 10 20 23 19 16 20 60 65 76 76 84 77 75 84 95 98 94 93 87 86 92 85 77 71 50 48 29 18 21 9 6 6 10 23 26 30 32 34 36 37 37 36 34 32 32 32 35 34
8 22 19 18 18 18 23 65 64 79 77 77 69 82 60 80 80 85 92 92 95 94 90 81 66 56 47 16 22 13 5 4 12 26 30 34 36 38 36 34 36 36 37 36 34 34 34 37 40
18 20 18 17 16 33 35 67 54 80 66 72 73 72 65 48 62 76 84 94 97 98 95 74 60 58 23 24 19 5 4 11 27 32 36 37 37 36 34 35 38 39 41 41 41 42 43 43 46
22 18 18 16 26 44 47 62 70 69 56 61 74 84 72 70 69 83 90 98 99 96 81 72 66 30 22 25 7 4 8 27 33 38 39 38 37 37 37 39 40 44 48 47 48 48 47 49 46
19 19 17 20 43 47 58 55 68 58 64 65 66 63 64 62 65 94 93 93 84 89 85 70 35 26 29 12 5 4 24 31 39 40 39 39 39 40 41 43 45 49 52 52 53 54 52 50 47
24 21 16 30 54 64 67 59 58 57 51 48 78 87 81 65 57 89 85 88 96 88 79 34 24 29 18 6 5 14 31 38 40 41 42 42 42 42 45 48 52 54 56 58 58 58 60 61 51
22 18 18 39 54 64 71 66 51 53 46 55 42 62 54 59 61 68 80 87 83 75 51 22 30 23 10 7 9 28 35 42 42 43 44 42 45 49 51 54 58 61 64 63 61 65 66 63 68
22 21 24 23 33 59 50 46 50 47 53 47 64 65 60 50 54 73 75 77 78 30 24 30 27 13 10 13 23 33 40 43 44 45 46 48 53 58 60 63 67 70 70 68 70 66 65 60 56
21 21 24 22 26 44 47 45 46 51 74 47 59 44 44 42 56 67 71 43 20 25 30 28 22 14 19 24 32 37 43 43 46 51 62 70 68 72 72 76 80 80 79 76 74 74 62 49 44
22 23 21 26 30 38 49 47 41 55 42 38 71 43 31 46 80 92 81 78 56 36 29 22 20 28 31 33 37 42 43 50 70 84 83 87 92 87 86 86 88 86 78 76 76 69 56 47 50
24 24 24 32 41 39 40 44 44 51 51 50 33 28 34 77 91 80 81 92 61 46 25 23 32 39 38 39 45 56 60 67 80 78 74 84 89 85 88 87 81 76 76 75 68 56 52 51 46
21 21 25 31 32 39 42 43 53 60 55 45 24 43 80 79 68 68 81 63 78 68 35 38 47 39 39 43 46 50 57 73 74 72 76 89 93 88 92 84 78 78 66 53 47 48 53 40 38
21 22 24 26 31 34 35 29 26 28 56 62 64 65 55 54 55 65 48 67 73 84 76 69 70 72 75 78 73 59 66 86 84 76 65 88 84 83 80 68 56 47 41 43 42 40 36 36 35
18 17 20 25 25 22 31 24 18 26 52 56 57 58 54 53 54 53 52 74 94 77 68 82 80 86 83 82 96 98 100 98 80 85 82 72 74 65 47 40 39 39 40 38 37 38 36 25 16
19 19 16 16 19 21 18 21 24 34 46 54 58 62 64 63 60 54 47 70 91 80 55 83 84 86 89 96 92 99 72 63 76 86 70 53 43 41 41 40 38 42 44 43 38 27 18 16 16
18 15 13 14 16 17 15 22 29 34 43 49 59 64 68 72 79 42 47 57 74 73 69 78 81 86 90 91 61 40 44 64 69 49 48 44 47 53 49 46 45 44 42 37 31 24 19 16 11
16 20 20 20 18 18 16 20 29 34 38 41 48 60 68 75 65 51 54 60 66 69 73 77 83 88 62 45 48 55 55 52 62 60 55 56 60 58 50 49 47 43 33 21 17 16 12 9 7
20 22 31 22 24 21 22 22 31 33 42 48 52 55 65 79 56 54 61 64 66 69 78 84 82 66 44 55 69 72 73 75 69 67 69 66 68 62 53 50 44 32 20 15 12 9 8 7 5
27 27 26 24 25 21 23 18 26 35 27 24 27 49 67 81 90 53 50 49 57 67 77 72 59 50 69 77 77 78 85 91 90 92 92 76 80 72 53 47 34 23 15 11 9 9 8 6 11
41 24 26 22 20 24 24 18 27 35 39 38 27 25 58 87 93 54 49 39 46 66 64 56 59 61 70 78 78 84 85 90 99 99 90 88 88 60 51 38 24 18 11 9 8 9 7 18 49
28 32 31 27 22 26 22 20 18 27 30 38 55 36 82 74 61 42 36 51 64 63 57 54 67 69 73 74 79 85 92 100 99 94 94 98 70 49 29 20 14 12 10 7 5 5 8 42 93
32 30 29 32 26 28 30 26 18 26 41 37 35 58 63 36 38 38 45 61 62 60 64 63 62 60 64 70 78 87 94 94 97 96 98 70 56 41 23 16 12 10 8 7 5 5 24 36 89
32 27 27 29 25 21 33 20 27 28 26 40 56 75 71 37 38 54 63 63 61 64 62 61 62 60 68 76 84 90 88 94 98 96 81 60 48 32 18 14 12 10 7 6 5 7 36 56 85
33 28 35 33 35 37 19 20 37 27 38 41 68 85 71 58 51 61 63 63 63 66 57 60 74 75 74 83 86 95 92 100 100 85 64 55 34 19 14 13 11 8 7 6 5 7 60 60 78
33 38 32 30 36 29 16 16 20 38 40 52 68 83 90 88 86 73 66 62 65 67 60 66 81 81 87 91 94 95 99 99 92 64 58 36 21 15 14 12 10 8 6 6 6 12 22 34 66
41 35 34 33 34 31 22 17 24 26 37 45 59 73 84 87 86 90 68 62 66 70 60 72 82 86 90 93 97 100 99 88 68 63 41 22 16 15 14 12 9 7 7 8 10 13 31 52 54
38 34 35 36 28 33 42 25 20 22 33 41 51 65 76 80 82 93 74 65 65 71 75 73 77 90 92 98 100 99 88 75 69 51 27 16 16 15 14 11 8 8 8 10 13 19 36 45 59

GFSSGP_700_rhum_045.txt.gz
RH
10 9 12 15 19 24 25 24 48 44 48 51 42 53 40 41 54 61 61 77 77 79 78 67 51 44 36 33 30 29 26 24 18 17 19 13 5 16 20 21 23 25 26 27 29 28 28 27 26
10 8 12 15 18 22 23 34 46 52 51 48 46 55 47 46 52 58 72 77 90 74 85 69 50 45 37 33 32 27 23 17 18 19 13 6 15 22 23 26 28 30 31 29 25 24 24 24 27
9 8 11 18 18 21 23 42 45 48 68 56 53 55 50 50 48 63 80 96 88 91 93 63 50 47 43 36 30 19 18 20 15 11 8 14 22 28 29 30 31 30 28 27 29 29 28 27 30
10 10 11 20 21 21 22 31 47 64 66 59 59 56 56 59 64 74 91 97 87 97 89 63 59 54 52 37 26 18 19 9 11 7 17 24 30 31 31 31 32 34 34 34 36 37 36 33 32
17 15 18 15 19 19 26 41 52 61 72 72 72 64 63 64 73 71 94 93 98 99 80 73 71 74 66 53 20 20 6 7 7 17 25 31 34 33 33 34 36 38 39 39 41 43 46 46 41
14 20 20 20 21 32 55 60 64 62 64 69 64 58 62 56 66 79 91 98 100 100 96 82 95 95 80 22 22 10 5 5 17 26 32 34 32 34 35 36 38 41 45 46 46 48 49 47 49
22 25 21 18 19 23 34 51 58 64 60 50 58 57 57 63 63 57 81 93 88 99 99 96 96 85 44 25 18 6 6 15 27 33 34 33 34 36 38 41 42 44 46 47 48 51 51 52 50
21 20 19 20 19 31 49 47 54 66 63 62 63 67 58 68 67 63 74 92 100 99 92 96 96 78 34 34 22 8 6 25 33 37 36 34 36 39 41 44 46 49 48 48 50 52 55 59 55
24 24 20 19 24 42 44 55 55 56 81 74 65 72 60 46 69 70 80 75 97 99 97 90 84 45 37 34 19 8 16 31 39 39 35 36 40 40 43 45 49 50 52 52 57 59 61 62 63
23 22 21 21 32 34 36 39 40 40 63 84 68 72 63 48 70 89 82 96 96 96 68 78 49 54 36 23 11 9 24 33 39 37 36 40 42 45 47 50 54 52 51 57 64 64 61 64 62
21 21 20 22 33 36 39 47 54 54 64 60 65 90 62 41 73 93 95 93 89 87 81 74 59 32 30 12 6 7 23 30 35 40 40 43 47 48 57 61 62 61 63 68 71 67 63 52 41
20 20 21 26 29 36 51 54 56 57 45 56 65 85 74 65 77 87 92 91 72 83 76 37 34 23 12 8 6 8 23 29 37 39 43 42 67 71 70 70 72 62 66 81 76 70 58 39 38
20 19 21 29 23 45 55 58 56 48 49 56 57 64 71 68 80 92 89 86 84 39 34 31 28 23 15 11 9 9 16 26 36 42 43 63 64 66 68 76 80 81 76 67 64 57 37 36 35
26 19 19 24 31 47 42 47 48 56 57 50 56 61 53 68 82 64 70 71 64 28 29 28 27 22 18 14 12 14 20 28 37 42 48 73 63 60 78 76 75 84 79 62 50 36 35 33 35
27 26 22 24 31 42 45 43 50 66 64 47 41 48 56 69 90 65 40 39 23 23 29 30 20 14 14 17 22 29 33 40 46 49 56 72 73 66 85 80 77 75 61 41 36 38 38 38 36
25 22 23 29 31 35 42 44 55 67 60 34 33 35 66 82 92 83 75 36 20 34 46 37 44 43 45 42 44 40 42 49 56 84 80 74 69 70 80 85 74 62 50 38 42 42 41 42 42
23 22 25 30 29 33 46 39 47 61 53 55 62 68 99 97 89 74 52 28 21 40 54 59 65 66 73 75 74 73 77 86 85 70 81 89 76 81 90 84 61 45 42 47 48 49 49 47 41
24 24 25 26 27 31 34 28 42 47 54 36 42 40 39 41 25 38 38 28 32 36 44 61 78 76 77 79 86 90 95 79 56 56 60 82 74 85 81 58 44 47 55 55 56 50 43 39 34
30 28 28 24 25 26 30 31 31 30 54 54 50 44 36 39 39 40 45 33 30 30 41 53 64 77 78 76 80 76 61 48 57 54 51 52 53 60 49 51 57 62 58 54 46 45 44 39 33
33 32 32 28 25 18 22 26 24 29 46 51 52 51 47 49 45 40 44 39 32 34 44 57 69 73 76 76 76 61 48 57 62 61 60 58 56 62 67 70 61 60 61 54 52 49 43 32 21
38 30 31 29 20 15 16 18 23 25 35 47 49 50 52 49 45 42 48 52 49 42 45 58 66 74 75 73 70 54 55 58 66 68 69 72 74 70 66 66 65 67 61 54 51 41 29 20 22
35 32 31 28 24 23 21 30 26 25 28 36 47 47 48 50 53 56 59 59 58 50 48 59 64 72 78 76 60 53 58 65 66 70 67 66 71 79 85 79 73 64 57 52 42 30 22 23 20
28 27 30 33 34 39 32 28 29 28 29 32 35 40 46 50 56 64 67 74 77 74 55 57 63 74 84 62 56 56 66 61 60 56 62 83 78 84 93 87 66 58 55 43 32 22 21 17 14
30 24 27 34 36 44 26 25 34 30 29 31 34 42 48 54 55 64 72 76 75 69 67 65 66 74 70 56 58 62 56 54 60 71 85 89 99 91 86 90 62 55 34 22 17 19 18 14 10
27 34 44 56 67 68 33 41 30 29 29 32 34 39 50 55 63 67 72 76 83 82 66 64 60 68 58 60 57 58 57 62 71 85 99 100 97 94 99 96 70 40 24 18 21 22 15 9 6
33 35 36 70 85 69 36 40 29 34 42 39 42 44 46 54 61 70 72 74 78 79 78 64 72 59 63 60 61 60 61 68 81 92 96 98 99 99 99 92 57 29 20 22 24 17 10 6 5
27 36 37 34 50 62 29 27 42 43 38 29 42 52 61 52 48 51 62 67 61 56 50 65 73 85 66 64 59 57 63 80 90 96 98 100 87 97 97 95 46 21 21 26 18 12 7 6 6
34 27 36 28 40 41 32 30 43 41 41 27 54 51 48 52 60 67 59 46 48 48 60 66 66 69 71 74 66 64 76 88 97 97 99 100 100 100 95 88 24 22 25 20 13 8 6 7 8
34 33 33 29 31 60 70 30 33 34 30 14 23 20 21 21 24 32 42 49 55 64 70 74 72 71 72 70 72 79 88 99 100 100 98 99 96 97 76 33 29 29 23 15 8 6 7 9 11
32 35 38 30 34 34 34 32 30 23 18 21 22 29 43 45 47 51 50 57 62 63 62 64 71 75 91 98 94 92 100 100 98 99 99 100 98 49 42 31 53 24 19 9 6 7 9 11 13

GFSSGP_700_rhum_048.txt.gz
RH
14 9 10 13 18 21 20 20 40 51 56 48 44 42 53 47 65 55 57 62 84 78 67 58 50 55 42 34 29 28 25 22 20 18 18 13 5 15 19 20 24 25 27 27 28 26 26 27 26
12 9 14 15 17 21 18 31 34 44 52 49 48 45 46 48 55 52 56 69 78 89 78 68 67 59 44 38 33 30 27 25 18 18 17 9 13 20 24 26 28 30 27 24 23 23 23 24 23
12 9 14 15 15 16 20 23 43 44 49 50 50 48 51 48 41 41 57 75 83 95 86 79 69 57 46 40 33 30 24 18 19 18 11 11 20 26 28 30 29 28 27 29 28 28 25 25 24
11 11 18 17 12 16 20 21 30 56 56 57 55 49 44 40 39 48 71 90 96 100 99 82 61 55 48 41 37 25 18 20 13 11 11 22 27 29 29 29 30 31 31 31 32 32 35 36 33
13 18 17 11 16 18 47 44 35 78 69 58 53 48 55 60 50 61 83 89 100 99 99 87 75 64 51 39 24 29 19 9 10 10 23 30 31 29 29 31 32 33 35 34 34 35 37 40 44
22 22 17 20 22 24 45 51 58 63 72 67 59 58 56 52 71 70 82 96 98 99 98 96 92 83 65 56 61 26 7 8 10 20 29 33 30 28 31 32 32 35 37 38 39 43 46 47 46
18 24 20 24 21 20 24 34 44 62 87 80 77 67 57 62 55 69 95 99 90 99 98 100 100 100 93 49 30 9 7 11 22 28 34 32 30 30 34 34 35 36 39 42 43 45 48 50 50
20 26 22 20 19 27 48 43 49 54 64 83 75 77 68 72 70 64 65 83 100 99 98 96 96 90 45 36 10 7 8 19 24 35 33 30 31 34 38 39 39 42 44 43 45 52 56 54 49
26 25 21 20 21 30 40 38 38 38 43 56 71 82 76 64 67 66 75 82 98 100 100 99 100 86 54 53 21 10 13 25 33 36 33 34 37 35 39 41 42 44 48 50 59 61 61 60 52
25 24 23 20 25 35 34 43 47 52 56 73 86 76 80 64 63 68 83 81 96 95 89 74 67 74 49 41 24 13 12 26 30 38 35 37 37 38 42 42 44 53 65 69 67 67 62 53 38
22 22 21 21 30 32 39 45 51 66 67 74 76 70 66 64 80 91 100 93 97 60 74 63 69 53 43 20 13 10 13 24 34 37 36 37 42 42 47 53 66 73 77 75 74 66 53 42 34
21 21 20 20 26 32 42 43 57 57 53 60 62 71 75 68 86 96 89 69 52 59 73 57 40 42 38 20 12 8 14 24 32 36 39 38 48 51 55 60 63 66 64 67 66 59 45 35 33
28 25 20 30 29 40 46 47 52 41 51 54 64 76 68 70 90 98 74 82 56 42 64 46 44 35 21 14 9 6 9 24 32 37 39 43 50 55 66 69 65 71 68 68 73 56 37 37 40
32 27 23 26 32 44 51 52 46 47 39 64 64 68 61 75 90 82 84 81 37 32 31 32 34 21 16 13 9 9 18 31 36 43 46 50 51 62 64 71 84 78 74 74 63 42 39 41 41
26 27 27 30 32 45 46 45 43 55 42 62 50 62 73 68 79 75 56 53 38 32 33 30 24 17 16 17 20 25 30 36 40 44 50 68 76 75 74 74 82 85 83 69 49 40 45 48 48
28 27 23 36 36 38 38 41 51 51 44 68 57 50 58 74 82 72 55 33 37 37 36 31 28 32 36 39 41 43 47 49 54 65 63 77 88 89 83 78 79 76 83 53 42 49 53 48 48
24 21 26 29 31 30 37 36 34 46 58 41 52 48 59 68 71 65 37 24 30 50 52 56 56 58 64 67 69 72 71 73 75 80 69 68 76 84 87 80 89 93 63 43 47 55 51 49 43
27 24 26 27 29 32 34 38 45 48 52 42 40 57 71 52 40 42 31 31 34 40 53 59 66 68 72 70 74 73 77 70 74 64 53 54 54 71 91 75 91 65 48 54 60 56 53 47 43
31 30 30 28 32 27 29 32 38 37 52 51 41 36 57 68 48 45 34 33 34 43 49 52 55 64 76 80 78 77 81 78 60 53 56 52 51 54 59 74 56 55 62 54 50 57 54 48 42
35 32 32 32 28 30 34 34 30 27 34 51 46 46 37 49 51 54 52 38 33 34 42 48 51 61 67 74 76 78 76 55 49 58 57 56 58 60 60 60 63 63 59 58 63 59 52 47 40
36 34 36 31 28 24 20 32 33 36 42 48 53 50 48 43 42 45 40 32 32 31 35 42 54 63 68 71 77 85 73 53 54 59 58 64 65 67 74 69 71 66 69 61 59 54 50 43 34
35 31 35 32 23 24 32 20 20 28 33 45 48 51 51 50 50 50 47 50 53 52 51 54 52 60 66 73 81 88 60 55 56 59 61 69 73 76 72 64 67 77 78 77 58 55 49 43 36
35 32 35 28 31 35 30 36 23 26 29 37 39 46 41 46 46 47 47 48 54 64 74 81 77 67 63 63 82 83 57 56 57 56 64 70 75 73 67 68 78 87 95 82 61 55 42 34 29
36 38 34 30 33 46 29 36 31 30 26 26 27 30 41 45 50 53 56 59 67 71 81 87 82 81 66 62 76 65 58 53 53 59 66 75 74 77 88 91 99 92 95 92 66 52 32 25 19
37 35 42 54 66 58 38 45 33 29 28 26 27 33 42 48 52 57 61 62 71 75 85 79 60 65 67 59 65 60 54 52 58 64 72 81 85 99 100 99 99 98 96 88 65 22 21 22 18
44 35 36 48 79 59 39 39 33 26 31 34 32 33 34 38 48 60 65 67 76 82 79 67 60 53 53 64 64 60 56 57 64 72 81 94 99 100 99 90 99 98 95 78 31 21 25 20 13
41 36 38 39 53 62 40 28 36 34 29 31 31 36 38 42 48 48 56 68 78 70 69 70 74 75 68 67 62 67 70 72 83 91 99 96 100 92 100 100 99 98 95 33 26 24 23 14 7
39 35 32 36 48 48 35 35 40 42 34 27 16 25 38 39 42 57 60 52 63 62 70 72 70 68 72 76 84 78 91 95 99 99 99 97 99 95 99 99 98 96 30 32 48 39 21 9 8
37 36 32 31 33 55 66 31 39 41 20 19 21 19 12 26 47 45 56 66 74 72 59 62 67 69 79 100 99 98 99 100 100 100 99 98 98 85 99 98 94 53 42 52 83 17 17 10 12
40 37 45 40 33 34 35 31 28 28 27 21 23 26 29 23 26 21 18 18 22 27 32 38 52 64 81 90 94 99 98 97 98 99 99 99 98 98 98 99 88 28 49 77 17 56 12 13 14

GFSSGP_700_rhum_051.txt.gz
RH
20 14 9 11 18 18 16 16 22 34 51 55 54 52 51 45 46 53 50 58 59 64 55 54 63 67 59 43 39 33 34 30 24 20 18 14 6 16 18 20 23 26 27 26 24 21 21 21 21
16 12 13 15 19 22 17 17 44 39 32 58 56 57 57 53 46 56 56 56 62 69 59 55 61 68 60 70 38 35 33 29 23 18 18 11 10 19 20 23 25 26 24 23 24 23 23 22 21
14 11 19 17 15 16 17 28 48 53 68 62 64 52 52 49 51 52 58 73 75 78 64 58 62 65 62 54 44 40 33 26 19 18 16 9 17 21 24 25 26 26 28 29 28 26 26 26 27
13 11 15 15 14 16 20 36 45 34 54 64 64 69 58 53 50 50 93 92 88 89 69 62 74 78 77 60 44 38 36 23 18 19 11 15 23 26 27 26 28 31 32 32 32 35 33 36 35
14 12 14 17 14 17 43 45 50 44 56 64 64 63 61 62 63 81 100 99 98 97 80 74 90 100 85 63 50 40 24 26 17 11 14 23 29 29 28 30 32 34 34 35 38 42 43 42 40
16 16 21 21 19 21 24 26 35 57 60 67 60 70 66 66 60 62 74 94 98 99 96 100 99 96 90 65 41 33 55 22 11 18 23 29 31 28 30 31 32 35 36 37 41 42 43 43 44
18 19 27 23 26 20 37 38 49 50 55 50 71 76 75 64 59 63 73 93 96 99 100 100 100 100 92 54 50 53 20 13 21 26 32 34 30 30 32 33 35 36 36 38 41 45 47 48 46
20 22 23 22 27 35 36 40 39 57 65 58 53 72 74 74 70 70 63 70 98 95 99 100 96 88 82 72 50 20 17 25 28 33 35 33 31 33 34 36 36 38 42 49 52 51 52 51 48
23 27 26 25 23 32 38 35 48 59 63 66 72 77 80 75 69 69 72 73 75 79 92 100 100 99 84 46 19 19 30 33 35 39 37 36 36 36 36 37 39 45 55 58 59 60 59 55 38
25 24 23 22 22 22 36 43 46 49 53 66 68 78 82 65 58 68 68 82 94 93 92 94 98 98 90 37 18 18 28 34 43 42 39 36 35 36 39 42 47 56 61 61 63 64 59 43 34
23 24 22 21 21 24 41 40 46 58 54 58 64 75 73 65 62 73 81 88 98 99 100 77 91 68 52 32 27 20 22 38 46 45 42 38 38 40 46 54 64 62 64 62 62 60 56 37 35
25 27 29 20 23 26 40 45 51 57 56 59 64 76 83 76 72 71 51 82 84 62 71 53 49 42 34 26 20 20 22 38 44 44 39 40 42 50 55 64 65 68 72 73 72 70 58 37 40
27 32 25 23 27 31 48 54 54 50 53 55 64 86 73 69 60 88 79 62 57 70 64 45 38 37 31 18 14 13 24 36 41 44 43 44 48 56 63 64 67 72 78 79 82 77 57 40 45
29 30 24 23 26 33 50 49 48 49 52 57 57 67 90 62 63 61 66 43 42 42 34 31 31 29 23 18 14 12 18 30 35 40 43 48 53 70 75 72 80 79 81 83 84 72 46 47 52
34 30 25 27 28 33 45 46 45 53 51 57 54 69 70 67 71 80 73 44 28 28 26 28 22 20 16 11 9 9 16 28 34 38 46 52 67 76 84 87 86 84 83 89 87 66 44 52 54
32 27 31 28 34 41 40 41 48 55 57 54 53 54 71 86 76 64 44 31 25 32 30 22 18 19 23 26 25 28 32 38 43 51 63 67 72 82 90 96 91 91 95 97 81 49 52 56 58
28 24 23 34 36 38 38 39 39 52 49 55 37 35 56 71 60 67 60 35 38 42 36 40 45 50 56 59 57 59 66 68 72 72 74 78 74 80 80 96 93 98 96 85 55 55 58 53 50
40 32 30 31 35 46 36 34 40 46 46 26 18 28 35 40 28 32 42 37 42 57 59 57 60 64 66 68 70 69 74 77 77 78 86 68 61 66 74 73 76 75 74 58 59 63 51 49 48
38 38 31 29 32 31 32 31 34 40 50 39 29 24 29 30 32 39 52 42 38 44 57 65 70 71 73 74 72 76 77 79 80 81 67 56 60 59 55 54 58 60 59 65 69 56 55 47 49
36 35 30 31 32 32 29 30 36 36 34 34 45 38 30 28 26 32 36 35 38 42 48 51 57 63 72 72 70 72 78 84 83 57 52 56 59 57 57 59 62 66 71 68 67 62 62 57 50
36 37 33 37 35 28 27 27 35 37 43 41 53 54 49 43 41 34 31 32 33 36 42 49 55 60 68 70 69 70 78 85 72 53 56 64 60 59 63 65 68 70 64 67 75 70 71 77 63
35 38 36 36 38 27 33 26 26 34 32 36 43 50 52 51 46 44 39 41 40 45 53 53 56 59 60 68 71 74 82 88 60 56 60 58 59 65 68 70 72 75 84 84 86 64 83 83 91
39 40 39 34 38 35 32 35 26 23 28 27 27 40 46 48 47 38 44 48 51 56 63 68 74 77 75 78 72 73 77 79 57 57 60 54 58 66 71 75 84 88 79 90 93 80 92 91 72
39 38 37 39 36 45 34 36 31 29 28 27 30 32 42 46 43 43 52 53 54 60 68 68 75 83 80 70 73 74 78 78 59 60 53 56 66 71 78 85 93 100 96 80 96 98 95 84 60
38 39 41 52 60 55 39 42 32 27 30 30 29 28 30 46 52 50 53 52 55 59 68 71 74 87 84 67 68 62 82 63 58 56 57 63 72 82 91 93 98 100 100 100 100 98 98 85 38
39 42 40 45 68 53 36 43 29 30 23 28 31 29 29 32 47 50 48 56 62 67 72 71 79 82 75 70 64 67 75 63 60 59 68 82 89 91 94 100 99 97 98 98 99 97 74 28 25
40 37 39 42 59 59 39 31 28 27 25 29 32 34 34 34 43 43 49 59 57 70 76 74 87 78 71 86 64 73 85 71 71 77 87 94 96 96 100 99 98 98 99 99 98 85 26 23 61
39 40 40 40 49 55 37 34 30 36 35 34 19 17 28 40 41 41 46 49 57 70 86 94 73 68 90 70 61 72 70 79 89 88 99 95 99 82 99 98 97 98 99 99 97 83 30 70 69
35 42 41 36 36 56 65 37 26 30 19 19 23 21 16 17 33 36 37 43 30 38 63 79 68 67 57 50 57 54 76 88 97 96 90 89 84 99 98 95 100 98 100 99 96 42 62 86 73
38 39 39 43 39 40 38 32 28 28 27 28 26 26 26 22 14 9 17 19 19 21 30 37 38 42 58 71 76 77 81 74 74 74 91 79 99 80 98 100 98 100 100 100 89 93 86 85 86

GFSSGP_700_rhum_054.txt.gz
RH
25 22 15 10 13 16 14 14 15 28 41 64 64 56 39 50 59 53 56 55 61 67 59 52 52 70 71 55 40 35 38 29 24 21 18 11 8 15 16 17 20 21 23 21 20 21 21 20 19
26 19 13 13 15 18 16 18 26 38 56 42 66 67 66 67 71 67 62 55 59 63 61 55 53 76 79 60 49 56 42 33 26 20 17 9 12 19 19 20 23 23 22 22 22 23 25 26 25
20 15 12 13 15 16 17 22 32 40 59 58 63 65 73 69 59 57 57 61 63 72 66 56 64 86 90 71 58 62 50 39 26 19 15 13 19 20 24 26 24 23 24 24 25 27 30 30 29
16 14 12 15 16 15 17 35 49 41 40 36 53 51 64 65 63 59 65 79 82 85 71 62 81 98 100 90 68 65 46 32 21 19 14 16 22 27 28 27 28 28 28 30 33 36 39 38 36
14 13 11 16 15 14 24 28 34 36 46 48 40 57 62 58 60 62 68 80 86 91 83 81 97 100 100 100 80 64 40 28 35 24 17 24 29 31 29 31 33 33 34 37 39 43 44 42 43
15 16 16 19 14 18 27 41 38 47 58 61 60 69 72 65 61 64 86 84 92 94 93 96 99 99 99 97 94 45 41 29 34 18 26 32 35 32 31 34 36 38 40 41 42 44 43 45 45
15 20 22 19 22 24 29 41 37 42 54 59 58 60 62 66 63 55 57 68 88 88 95 100 100 100 100 98 62 49 48 47 30 29 33 38 34 32 33 34 36 39 40 42 44 44 48 52 51
14 25 28 24 25 28 37 41 37 37 62 55 60 59 56 68 70 68 64 60 67 96 97 100 100 100 98 96 73 59 45 24 36 35 38 38 34 35 33 36 40 44 44 49 54 59 59 55 47
20 28 24 23 38 29 28 41 46 46 56 64 66 59 56 66 69 69 65 64 72 99 97 90 95 89 94 88 83 50 26 41 39 40 42 40 38 34 36 40 45 45 51 60 67 62 56 52 42
28 29 25 24 23 24 22 36 44 47 52 59 70 62 80 70 65 58 69 70 78 86 93 90 88 95 96 93 51 26 28 44 40 42 43 40 38 38 41 44 48 59 70 71 64 66 68 65 46
25 24 24 26 28 22 33 42 45 50 49 61 65 81 75 72 68 64 71 82 94 92 90 100 100 99 95 48 33 29 51 48 48 46 44 41 43 43 46 54 69 75 69 69 75 74 76 72 50
27 28 35 23 21 23 36 44 49 56 47 50 62 70 76 81 83 68 72 96 98 99 69 90 81 89 88 41 27 37 45 48 47 48 45 44 44 52 64 74 75 72 72 78 76 76 74 72 45
27 32 28 21 28 28 41 50 52 53 50 55 57 77 87 86 86 63 73 99 84 43 42 41 54 50 36 17 14 17 36 45 49 53 48 45 50 56 74 73 74 74 79 81 80 78 79 70 45
30 31 25 24 28 29 50 53 53 49 53 57 51 45 80 56 77 66 62 63 59 58 49 45 43 33 20 14 12 18 33 42 45 49 45 47 52 61 78 83 81 84 87 88 89 87 84 57 52
32 31 26 24 30 33 51 49 48 47 53 50 59 41 45 62 63 70 49 50 72 76 54 42 35 29 19 15 12 14 24 36 41 44 46 48 56 62 80 84 84 93 95 92 92 90 63 53 63
36 29 28 29 38 45 52 44 45 51 55 53 61 42 64 60 79 85 77 33 36 36 36 30 24 18 13 12 11 13 20 30 35 39 45 52 67 74 74 77 80 78 89 85 92 69 57 67 64
35 30 26 29 38 47 49 42 41 44 54 58 59 42 60 80 58 40 50 38 39 38 31 22 20 23 26 31 27 29 35 46 50 58 73 68 74 68 64 70 77 85 78 81 64 61 72 69 63
36 29 33 33 38 42 36 34 35 44 49 39 39 34 48 63 57 46 34 38 46 36 35 38 44 50 55 56 58 64 69 73 75 76 75 76 69 64 69 73 72 66 70 62 70 76 76 73 66
38 33 31 31 31 32 32 32 31 35 44 35 26 22 25 42 55 50 31 38 53 50 50 55 59 63 62 63 66 74 80 80 80 78 78 63 63 61 71 69 61 63 63 69 77 70 67 68 71
38 37 34 31 32 35 32 30 31 32 36 38 41 31 24 25 30 34 31 33 47 53 53 54 55 60 70 76 81 77 79 79 82 79 68 64 61 66 66 62 63 61 64 69 72 74 71 71 68
36 36 36 38 35 36 30 28 30 30 36 37 44 49 46 36 29 28 29 30 33 34 37 43 49 51 57 63 66 69 72 75 80 90 76 64 60 65 64 59 62 64 68 74 76 76 83 87 78
34 35 38 41 37 38 34 28 20 25 28 34 36 30 36 43 42 42 38 36 34 36 40 45 47 52 57 62 61 65 77 80 78 88 65 56 59 62 57 59 61 70 75 83 84 81 75 68 65
37 36 38 41 35 37 38 39 28 22 24 25 27 28 33 43 46 42 39 45 47 51 57 63 68 71 76 80 76 85 84 82 80 85 64 59 59 63 60 63 69 75 80 91 85 92 100 84 81
35 38 40 41 40 46 33 39 32 29 23 27 27 27 27 29 36 47 51 53 53 54 56 62 67 71 75 78 80 78 79 82 82 87 62 60 65 64 64 68 73 79 91 96 99 87 78 71 87
35 38 42 54 61 54 38 46 28 29 32 31 28 29 30 32 33 35 47 48 49 53 58 62 69 66 76 77 75 77 80 80 84 84 60 63 67 70 78 85 91 93 96 92 99 89 80 69 100
38 40 42 45 65 47 37 40 27 29 28 23 28 31 29 27 30 33 43 51 48 56 62 68 69 68 79 81 78 74 79 74 76 68 64 70 73 82 90 91 95 99 92 98 97 99 76 98 99
41 37 40 44 62 64 37 31 24 24 34 33 32 32 30 31 32 32 47 51 49 57 63 67 72 73 81 86 77 74 75 70 80 70 78 82 83 68 89 88 95 99 98 100 96 99 95 99 99
43 41 42 43 51 55 41 34 27 29 37 20 16 15 11 16 31 39 43 46 49 57 66 70 76 78 88 81 73 77 70 76 91 62 68 69 60 78 87 81 99 96 93 90 99 97 98 99 92
38 38 41 42 40 55 64 35 29 26 26 21 23 25 24 16 27 46 46 40 37 35 33 41 70 92 90 71 64 57 64 61 56 72 81 87 95 86 87 98 99 78 97 96 98 97 97 86 85
32 34 40 42 43 43 45 39 32 29 25 28 30 28 27 27 23 10 14 15 18 23 24 22 28 39 55 49 54 67 76 83 86 94 98 78 85 95 84 73 96 78 93 98 98 87 88 91 82

GFSSGP_700_rhum_057.txt.gz
RH
25 25 24 16 12 13 14 14 14 19 43 55 42 46 58 64 68 61 64 59 61 63 67 75 77 75 70 61 51 49 48 54 47 22 18 12 6 12 16 18 22 21 20 20 20 20 18 20 21
26 25 20 13 15 18 15 16 26 39 30 50 50 60 61 74 67 59 70 70 70 71 78 78 75 87 79 67 60 58 56 53 31 22 18 13 8 15 20 23 24 21 21 21 21 21 23 28 28
26 21 16 15 15 16 18 19 23 37 42 46 58 70 76 81 64 51 63 93 79 91 94 90 88 93 84 76 67 61 54 45 31 21 18 12 13 21 26 25 23 25 24 23 26 31 32 32 34
25 17 15 17 18 15 15 26 37 29 42 45 42 60 74 68 55 53 60 90 85 90 94 87 81 86 91 87 74 67 59 50 30 20 18 12 22 26 28 26 27 28 28 30 32 33 32 37 38
22 15 13 16 14 13 17 26 38 38 44 48 49 58 62 61 57 59 68 79 94 99 98 87 86 89 100 100 96 73 66 50 25 18 16 18 29 31 29 32 32 32 32 32 33 35 41 44 45
21 15 15 18 14 13 24 32 48 44 53 55 63 66 63 64 59 59 76 86 95 95 94 99 98 99 99 99 99 79 68 24 36 28 18 28 34 30 34 36 36 35 37 38 42 47 51 51 47
19 20 22 18 18 22 34 34 49 47 52 61 59 59 56 60 62 57 56 70 79 86 96 100 99 99 98 96 69 70 46 28 29 32 28 37 34 36 37 36 38 42 43 46 53 57 56 52 49
16 24 26 23 21 28 31 38 46 52 49 50 66 61 54 60 73 69 61 58 70 87 93 98 84 100 96 98 89 47 25 37 48 32 34 39 40 41 42 42 45 46 46 55 60 62 56 60 58
17 26 23 23 30 37 32 30 40 51 52 54 59 64 58 57 65 68 65 55 63 75 81 89 91 98 99 94 71 46 68 78 39 35 44 40 42 42 44 48 49 52 59 65 66 64 71 72 70
26 28 22 24 24 26 31 31 39 45 52 57 63 69 62 74 72 63 65 59 66 90 96 98 97 96 91 93 91 89 86 45 34 43 44 43 43 44 46 45 51 60 72 73 72 77 73 70 72
26 23 28 29 32 25 29 34 44 51 48 54 66 74 75 74 68 67 66 71 81 100 100 98 91 100 96 100 100 60 54 38 44 45 46 43 43 47 47 50 58 73 76 76 80 76 75 75 69
27 26 34 24 23 23 26 36 46 49 49 51 62 66 82 81 73 81 76 90 91 78 98 97 100 100 94 93 42 37 29 42 46 45 44 44 48 49 54 65 81 83 82 82 84 82 81 80 69
30 29 30 26 27 27 28 44 48 48 53 55 46 74 86 86 80 63 95 96 80 66 96 86 97 90 55 57 31 44 39 43 46 46 45 47 47 58 71 84 85 84 84 82 81 87 83 79 54
29 30 29 26 26 29 42 52 46 52 56 42 36 74 90 84 82 51 88 87 64 66 82 87 93 73 62 32 37 37 41 47 50 49 50 49 55 60 82 87 85 84 81 77 85 80 81 60 54
28 31 28 30 26 37 48 49 42 47 58 58 36 35 55 57 63 64 62 53 53 52 46 45 43 38 23 20 22 30 39 44 49 52 49 52 57 67 73 80 86 74 65 76 78 77 64 58 63
30 32 29 35 41 45 51 42 41 48 63 62 46 37 36 58 60 51 54 71 68 61 50 46 46 34 19 15 15 20 33 42 46 46 50 74 68 70 79 75 81 70 71 69 74 62 60 70 69
36 28 27 28 39 49 53 43 40 39 49 60 59 50 56 44 44 31 32 36 42 44 37 33 32 26 17 12 12 16 25 37 40 43 52 63 78 76 76 76 72 64 66 64 61 63 66 66 65
35 32 30 29 38 41 39 34 34 35 40 54 60 50 56 61 46 31 36 40 42 43 36 30 22 17 15 15 19 24 32 41 44 49 70 76 75 77 75 66 60 64 60 61 60 67 69 72 71
39 33 31 31 35 37 37 34 33 34 32 36 35 35 40 47 73 51 31 45 44 34 29 27 31 36 44 49 57 65 69 69 76 80 80 78 77 74 61 67 62 59 60 60 63 71 67 66 68
37 37 35 34 36 35 33 28 29 29 30 37 39 25 27 32 28 24 27 39 40 43 47 51 55 57 59 66 74 77 81 80 82 81 80 80 81 70 66 64 62 54 60 63 66 72 74 73 76
37 36 36 37 35 36 33 27 29 28 29 32 33 38 30 31 28 26 27 33 38 38 39 44 49 57 64 71 74 72 67 68 65 72 88 98 83 57 59 62 56 57 57 63 68 73 77 83 90
39 34 34 36 36 35 35 35 25 21 24 26 32 34 45 31 30 30 30 30 30 34 39 40 43 48 55 60 58 60 71 81 86 88 90 99 72 60 62 62 52 51 59 67 71 76 92 96 96
38 38 36 38 41 37 37 41 29 28 21 19 19 25 31 42 40 35 34 32 33 34 37 44 50 55 64 68 71 73 80 89 92 92 92 92 89 66 61 60 57 60 67 70 77 92 98 100 99
39 37 38 42 44 45 35 38 32 28 27 24 26 25 24 31 41 44 42 44 44 42 47 56 61 64 68 74 77 78 79 78 93 94 95 95 95 69 68 62 68 73 75 82 93 95 98 99 91
41 39 44 49 53 45 42 45 28 30 32 31 30 27 30 30 33 37 44 50 51 52 53 56 58 67 68 71 76 84 86 73 75 80 86 94 86 73 70 68 74 83 97 100 95 97 99 99 91
42 40 39 44 48 40 38 43 26 26 26 25 26 28 29 28 27 32 34 41 49 53 56 56 59 64 67 73 78 94 98 81 76 69 76 95 83 73 68 80 97 94 99 84 98 100 97 79 82
42 42 42 42 56 58 40 32 29 23 31 38 34 33 33 30 30 28 29 32 44 52 58 59 60 61 68 70 77 90 94 93 75 70 88 86 66 74 99 99 99 82 92 99 90 76 82 80 100
45 43 44 44 54 54 42 35 27 28 39 19 24 21 13 8 21 29 32 35 46 53 56 61 63 67 70 72 76 87 81 76 65 62 82 88 72 92 96 98 95 99 98 98 100 83 83 100 100
42 48 44 43 41 45 48 32 25 29 26 28 30 26 25 20 16 26 39 44 43 44 51 56 57 68 74 78 83 86 71 64 70 71 82 92 100 99 91 99 99 99 94 95 87 99 97 99 92
34 34 39 41 45 43 45 40 32 30 31 30 30 29 28 30 27 24 10 14 15 18 21 22 23 27 42 55 74 73 71 74 93 99 96 96 99 99 100 81 73 100 99 97 98 98 96 89 63

GFSSGP_700_rhum_060.txt.gz
RH
18 24 25 22 24 20 18 17 19 21 43 64 42 46 62 86 80 68 67 68 60 72 75 83 95 86 72 63 61 57 52 56 52 37 19 14 6 12 16 20 22 22 19 20 20 19 20 24 26
22 25 24 29 21 16 15 17 19 32 56 32 53 48 62 77 56 68 66 65 72 88 97 98 100 93 79 68 64 61 60 60 61 29 19 15 8 15 20 24 23 22 22 22 24 26 27 28 30
24 24 26 26 20 17 16 19 25 50 35 43 57 61 64 61 60 57 58 53 55 79 98 99 100 98 87 79 71 68 68 70 54 24 19 13 12 21 26 25 25 25 26 28 30 29 31 34 35
25 22 18 21 18 20 16 18 37 42 36 53 60 70 61 49 54 50 44 58 81 69 97 98 100 100 98 91 89 81 71 66 42 25 17 12 16 25 27 28 28 30 33 32 32 37 43 44 41
25 21 20 20 20 16 17 27 39 61 68 57 58 64 51 48 56 65 58 65 86 98 99 100 99 100 100 100 100 98 78 60 37 22 16 13 21 28 30 32 33 36 37 38 41 49 49 46 45
31 22 19 18 17 16 22 35 46 51 62 54 64 73 64 58 58 57 61 72 86 88 100 99 98 100 100 100 100 97 82 46 40 17 17 18 30 30 34 35 38 38 41 45 50 56 52 52 55
30 27 21 20 18 21 32 34 33 44 64 78 62 66 59 61 59 62 61 73 82 88 99 94 79 96 99 100 100 95 63 37 33 20 23 30 34 34 35 36 40 40 45 50 59 61 58 64 62
25 26 24 20 18 27 32 30 41 44 84 60 64 80 62 64 61 70 66 63 60 79 91 98 97 97 98 100 100 92 60 54 29 28 36 34 37 39 41 42 44 46 51 61 68 66 71 68 66
16 24 21 22 23 32 32 31 42 37 52 60 61 72 68 62 64 70 79 79 67 89 92 99 98 100 93 90 89 96 70 42 35 52 54 42 43 41 42 46 47 53 66 75 70 74 73 72 70
29 25 22 23 24 27 29 30 32 42 50 52 63 72 72 70 76 70 71 70 64 67 85 92 99 94 97 97 92 98 80 60 80 57 44 50 45 44 46 47 52 64 75 74 76 77 78 77 73
32 24 26 28 27 30 31 31 33 45 63 53 61 71 81 87 85 79 72 75 87 88 97 95 94 99 96 99 100 98 64 86 81 61 57 46 46 46 47 49 57 72 78 78 76 80 84 82 78
29 28 32 29 26 26 25 29 40 50 56 51 52 56 72 89 81 75 76 84 98 100 100 99 98 99 100 100 97 80 96 82 51 56 53 49 49 51 51 59 74 79 79 84 87 86 83 80 74
30 29 31 29 24 25 25 28 43 47 54 52 42 58 83 86 87 84 74 79 97 99 99 99 100 100 100 100 97 93 69 48 49 51 51 50 51 50 56 72 81 86 87 89 88 78 72 75 57
36 26 34 30 23 24 31 43 47 52 52 44 38 86 92 94 76 65 92 88 100 99 98 100 99 77 99 94 75 59 51 50 54 52 49 50 50 55 65 79 88 89 82 71 66 68 64 59 56
30 29 34 27 28 31 38 46 49 45 54 56 36 65 81 74 52 71 89 75 63 96 99 98 78 97 80 56 47 46 52 52 47 48 48 51 51 58 75 80 91 89 69 58 61 65 57 57 62
32 33 27 34 32 39 45 42 40 44 53 61 40 44 52 69 64 46 40 39 47 60 71 76 69 63 53 42 48 49 52 53 52 52 53 51 55 62 74 84 86 78 68 56 57 57 58 64 60
28 26 25 37 32 46 46 41 35 39 49 63 63 54 59 42 48 66 62 58 59 44 45 47 40 28 27 35 38 43 46 48 48 51 54 52 68 76 83 84 84 73 58 54 58 58 62 62 58
23 29 27 26 40 42 46 39 40 35 41 60 55 51 57 51 40 28 37 50 48 48 44 44 42 37 30 24 21 24 36 43 45 47 48 51 66 81 79 81 84 65 54 55 60 58 62 63 67
37 33 29 31 35 45 42 38 35 30 32 44 52 42 50 72 46 30 28 32 32 29 29 24 19 19 15 13 13 16 24 32 39 44 46 62 77 85 82 87 70 59 58 56 57 58 60 64 76
41 30 29 36 36 35 34 32 31 28 32 40 50 39 40 61 51 28 24 29 26 24 21 20 20 21 23 29 34 36 42 52 57 67 76 79 84 85 88 82 59 56 52 52 53 57 63 70 76
42 36 35 33 38 34 34 26 27 22 21 30 37 42 31 45 33 26 26 35 36 37 40 44 47 50 52 56 62 65 67 70 69 74 80 85 89 93 95 72 56 58 53 51 56 61 67 70 76
38 37 38 37 33 29 33 26 28 24 21 24 31 35 24 24 26 25 25 32 36 40 44 47 50 52 55 59 64 70 72 75 78 82 82 89 97 98 91 64 59 58 60 57 61 67 70 73 87
36 38 42 40 37 39 34 30 25 26 23 17 21 29 35 36 28 27 28 29 31 39 39 40 40 45 50 56 62 67 71 73 78 86 92 97 89 88 96 84 64 62 68 70 71 73 73 94 99
41 40 42 46 43 35 33 31 24 24 26 30 20 22 24 32 35 31 30 32 32 34 36 40 44 47 51 57 63 70 75 78 80 89 94 93 95 96 94 96 90 79 78 77 77 83 98 97 100
46 41 37 43 41 34 40 36 26 29 32 29 31 30 30 28 33 39 38 36 34 34 36 38 44 55 61 65 68 72 79 92 95 82 80 78 82 88 92 99 99 84 88 83 92 97 100 99 78
43 39 34 38 36 30 43 29 25 26 24 25 25 28 25 27 29 32 42 43 46 46 46 46 52 55 59 67 68 70 84 97 97 93 82 78 81 90 99 100 97 86 84 98 99 95 99 94 98
49 42 42 45 40 46 31 30 28 26 29 34 34 34 32 31 29 30 30 40 47 51 54 54 55 57 59 60 63 66 76 86 94 98 85 79 73 76 99 98 82 77 98 95 95 99 100 99 93
48 43 43 43 42 39 30 30 24 28 38 24 26 24 18 15 27 29 29 30 34 42 49 58 64 67 71 74 75 77 80 88 92 90 82 74 72 74 96 77 91 100 94 99 96 100 94 99 95
48 47 45 43 41 37 36 28 30 30 30 30 27 28 25 24 19 14 32 31 31 34 42 52 64 70 66 67 68 71 74 75 96 88 76 85 95 90 97 99 100 98 84 98 100 98 97 98 97
44 42 44 38 38 46 45 34 31 33 33 31 32 32 28 26 26 25 19 31 37 40 42 47 54 58 59 59 61 64 68 78 71 79 82 94 98 90 100 99 98 96 72 95 97 99 98 98 96

GFSSGP_700_rhum_063.txt.gz
RH
12 15 20 29 22 18 15 13 14 14 17 28 48 33 32 28 50 64 94 73 61 50 48 56 70 89 75 64 60 69 68 67 65 55 19 10 8 12 17 21 22 20 20 20 20 24 26 27 26
15 20 23 27 23 15 13 13 14 16 35 48 56 47 56 45 79 77 59 78 61 63 53 62 85 93 81 65 73 80 80 84 72 61 19 11 10 16 20 23 22 24 22 23 26 28 32 33 29
19 22 28 26 20 16 13 20 17 24 44 47 54 60 65 62 74 69 60 49 53 62 68 66 83 97 86 71 69 72 82 88 84 54 19 11 14 19 23 23 25 28 28 30 32 37 41 39 36
24 27 23 18 15 15 15 15 17 28 36 46 56 67 57 50 45 46 50 48 45 62 71 87 79 100 91 80 79 88 93 91 81 37 18 12 20 26 25 25 28 34 33 34 41 47 44 43 39
23 23 18 16 15 15 15 16 36 44 42 53 68 59 67 40 45 45 43 47 48 51 69 99 98 98 98 92 100 100 98 85 55 27 15 17 26 28 28 29 33 36 38 42 50 49 48 52 53
26 23 18 13 17 16 15 31 43 59 63 76 67 67 86 52 54 59 49 58 62 70 88 98 100 98 99 97 99 98 88 60 36 18 16 25 31 30 34 36 37 39 44 50 56 53 54 60 58
25 22 19 17 16 16 22 45 56 58 65 65 72 66 82 59 66 64 69 61 69 75 88 88 100 100 100 99 99 98 56 33 17 22 26 34 34 35 39 43 43 45 49 57 63 58 63 61 58
25 21 18 16 16 20 42 44 49 44 60 60 70 66 90 70 66 66 63 60 72 72 77 69 68 94 99 97 100 98 91 54 29 32 37 36 41 41 43 45 46 47 57 68 68 67 68 64 63
25 19 16 17 18 23 45 37 52 38 55 77 73 79 77 74 68 69 67 69 66 79 83 99 96 95 100 100 91 87 90 79 52 44 49 44 48 43 43 45 47 54 65 73 68 72 71 72 72
22 20 18 19 20 21 22 28 45 37 45 83 64 54 66 77 73 78 76 75 64 72 96 97 98 99 100 99 95 97 98 87 53 58 61 86 55 46 44 48 50 63 73 76 76 76 76 70 72
22 20 21 21 24 25 25 27 36 46 49 89 89 50 60 71 78 86 84 71 67 69 88 98 98 100 100 100 100 98 100 59 61 72 89 71 50 47 46 48 56 74 82 79 77 76 70 74 78
24 21 21 23 26 27 28 31 37 46 66 53 51 46 46 64 75 82 83 88 76 74 73 97 100 100 100 100 99 100 97 62 77 87 67 62 56 53 50 52 70 84 82 79 75 74 71 72 73
25 23 23 24 27 35 34 33 40 54 66 44 46 39 50 73 85 87 85 91 99 94 100 99 100 100 99 98 100 100 83 94 81 68 59 54 58 53 50 61 82 83 82 83 75 71 71 63 54
27 29 25 27 32 33 28 38 46 71 49 47 46 46 87 97 92 80 91 88 99 99 100 91 98 100 99 99 100 99 98 84 66 54 53 59 57 53 56 75 88 87 88 73 67 64 60 52 48
31 28 26 27 31 32 38 37 54 61 46 52 42 63 82 60 64 90 99 100 100 100 96 100 100 100 98 97 94 100 88 82 54 55 57 58 55 53 62 81 87 91 88 72 63 60 51 53 55
28 26 24 31 32 35 37 46 66 62 45 47 52 44 62 63 99 45 55 64 76 94 92 98 95 98 96 99 92 69 57 52 53 54 55 52 54 56 68 83 88 94 83 76 51 49 56 56 54
23 21 30 34 32 38 38 48 73 50 67 79 54 56 52 39 99 49 31 34 49 57 61 61 74 59 61 66 49 51 54 53 51 48 49 50 53 60 67 73 88 89 80 71 58 52 55 53 58
21 18 23 19 40 33 31 31 53 44 58 64 79 90 84 68 96 48 49 56 41 55 55 51 42 41 33 42 43 47 50 50 49 51 52 59 70 63 71 82 83 88 80 74 51 51 57 56 59
30 23 20 25 29 33 32 36 34 43 53 62 71 76 78 94 93 56 39 49 49 35 36 38 31 22 20 19 22 33 40 44 49 49 48 51 68 66 71 81 85 89 80 71 53 49 51 58 63
32 26 22 25 29 32 30 34 33 32 52 54 65 64 80 88 92 60 26 28 27 26 25 24 20 15 15 18 12 16 23 30 36 38 41 57 63 58 76 88 90 94 87 66 53 50 54 64 64
33 28 35 30 40 30 28 26 27 29 42 56 61 64 53 80 89 90 28 28 24 19 17 16 14 13 13 14 16 20 26 36 48 56 64 70 74 79 91 95 98 99 98 64 59 52 60 72 66
34 30 30 29 28 27 39 32 39 27 32 48 49 32 23 61 78 90 23 29 30 29 29 28 31 39 42 44 50 53 56 59 62 65 72 80 83 90 96 98 97 95 89 65 61 66 73 76 84
32 40 34 32 34 33 31 23 38 24 21 27 43 39 59 61 65 74 46 29 33 36 36 40 40 42 44 47 51 57 64 69 72 74 76 80 84 90 94 90 93 100 98 80 77 86 74 80 87
35 38 35 34 32 37 30 28 34 26 20 20 23 41 55 60 58 61 71 29 29 35 37 38 39 41 46 50 56 61 67 74 74 74 75 83 87 93 99 100 99 99 100 100 100 89 87 84 96
39 35 33 39 52 37 40 26 27 30 25 26 28 28 39 54 64 63 62 46 29 30 33 35 38 42 44 46 50 56 64 68 73 84 86 97 84 96 95 96 87 90 96 100 100 100 97 91 99
39 34 36 52 45 53 32 24 25 25 27 30 34 37 40 43 54 63 45 56 34 31 32 33 35 39 44 61 59 63 68 71 78 89 86 94 94 83 80 87 88 97 98 100 100 100 99 99 90
37 36 39 42 38 34 26 23 22 24 24 30 32 35 40 45 37 56 66 53 40 40 38 40 38 39 43 64 64 70 75 70 75 84 92 90 99 89 92 92 95 92 99 100 100 95 99 98 96
48 39 38 34 44 41 24 22 23 25 30 27 28 31 33 32 33 44 63 71 52 53 51 48 50 51 55 61 63 67 68 73 85 88 92 96 100 97 92 89 95 97 100 100 100 98 90 99 98
40 45 38 46 49 39 32 23 28 24 27 30 33 32 34 34 21 16 31 51 77 91 89 54 51 57 64 72 77 77 77 80 85 82 78 72 88 88 82 87 88 99 99 99 99 97 85 99 99
36 35 36 35 32 33 34 33 28 27 27 30 32 35 36 25 26 23 20 22 36 41 58 51 43 52 62 71 76 64 64 68 71 75 80 78 78 85 94 95 100 97 100 100 98 85 100 99 99

GFSSGP_700_rhum_066.txt.gz
RH
8 11 15 26 29 23 18 15 13 13 15 30 31 40 55 47 39 37 42 52 73 93 96 70 62 73 74 64 55 62 67 66 59 40 17 6 9 12 15 18 19 18 18 18 21 24 25 25 24
11 10 27 31 26 22 16 15 17 16 24 34 29 33 32 38 51 65 46 30 34 49 93 83 79 83 84 69 68 82 77 77 67 48 18 8 11 16 20 21 19 20 20 25 29 33 31 30 30
14 18 30 28 25 20 15 17 17 18 21 32 35 51 40 59 63 61 37 38 39 50 74 66 79 96 92 73 81 82 82 85 78 59 18 10 14 20 24 22 22 23 28 32 36 41 38 34 32
19 32 26 21 16 14 14 18 14 17 27 32 38 44 62 58 55 40 42 46 48 62 60 79 87 83 97 78 84 94 100 98 88 49 16 12 19 24 24 26 27 33 34 39 46 44 43 46 44
30 27 21 18 14 14 16 14 20 31 45 48 48 47 76 85 73 56 44 50 60 69 62 89 94 98 99 86 81 100 100 97 78 25 14 17 23 29 27 32 34 36 39 49 49 49 53 54 50
31 24 21 17 15 20 18 17 31 36 39 79 85 72 64 50 72 65 56 56 69 76 74 70 72 99 99 98 96 99 99 92 48 16 17 24 27 30 32 36 37 38 47 54 54 52 58 58 54
29 22 19 16 15 15 32 35 38 47 44 49 47 44 86 93 78 74 66 67 71 78 72 86 75 73 100 98 100 98 96 81 38 16 24 30 30 33 38 40 40 45 52 60 57 54 60 61 59
24 21 18 16 15 21 25 27 43 40 37 43 68 79 62 58 70 72 67 67 67 66 75 74 61 57 87 100 100 98 94 77 23 22 30 34 36 41 46 44 45 48 58 63 59 60 63 66 66
23 22 18 19 22 31 23 24 41 39 39 50 78 68 48 55 71 68 61 66 68 70 72 68 67 68 72 86 85 96 91 34 33 35 45 42 46 49 50 49 49 52 60 65 64 66 67 70 70
21 20 19 22 18 18 20 24 27 42 43 38 43 82 69 62 61 71 67 66 67 62 60 64 82 89 77 89 98 96 85 94 89 55 48 52 45 48 50 50 50 56 75 69 66 68 72 76 63
22 20 19 19 20 22 23 23 30 32 41 41 41 63 73 61 51 69 76 68 64 61 54 56 78 97 98 100 100 98 99 98 54 58 57 58 54 52 58 50 54 64 72 68 70 72 75 45 56
22 21 18 18 20 22 24 25 27 32 43 52 50 68 45 50 51 64 77 72 68 68 81 90 99 91 100 100 100 99 99 89 59 66 65 63 73 57 50 48 63 76 74 75 72 68 49 55 66
22 22 20 21 20 22 27 33 31 56 67 52 49 44 38 59 77 85 82 74 71 77 90 94 95 97 100 100 99 100 100 76 66 76 87 81 62 55 48 54 72 80 80 79 61 50 51 57 55
23 25 24 23 22 23 28 30 31 71 72 49 47 29 56 75 70 55 70 76 83 94 98 100 99 99 99 98 100 100 100 69 80 85 74 65 60 53 55 58 81 82 77 70 56 54 54 52 51
28 26 24 24 25 27 27 30 37 43 60 67 41 32 33 40 36 82 90 87 88 99 100 99 99 100 99 100 99 99 79 86 84 74 64 61 53 57 54 63 88 90 82 76 61 53 55 52 46
29 28 24 23 26 32 31 32 37 39 59 95 51 38 44 41 32 34 47 51 71 88 99 100 100 100 99 99 98 93 93 71 68 66 64 56 55 55 56 68 88 90 87 84 77 58 55 52 46
25 23 19 22 32 33 33 44 46 43 57 100 83 100 66 36 38 30 25 30 53 79 98 100 100 98 84 99 100 99 80 81 71 64 59 54 52 53 55 71 78 82 88 83 83 70 51 48 53
25 25 24 20 32 33 27 44 41 54 60 94 83 91 76 95 54 40 28 23 36 38 59 69 83 84 80 66 69 63 56 60 59 53 51 49 49 51 56 67 70 81 86 82 88 67 57 55 56
27 24 25 27 30 33 29 31 45 60 62 68 72 82 88 85 96 56 23 40 32 35 33 35 32 40 42 39 40 44 46 48 47 46 46 48 52 59 63 78 73 81 87 80 86 77 64 61 54
31 28 24 23 30 28 24 28 42 42 44 45 58 68 81 92 94 77 38 24 30 35 35 32 30 26 29 30 33 37 43 45 46 46 47 43 59 66 78 71 71 76 87 86 83 94 83 65 55
29 24 29 36 31 28 29 26 30 33 41 42 52 58 69 85 88 85 25 38 42 39 33 29 21 16 13 18 18 20 26 32 35 37 38 48 46 58 66 59 69 78 88 92 92 99 95 64 77
29 26 29 28 28 26 35 36 40 34 31 44 45 54 59 76 85 76 41 23 26 18 18 16 14 13 12 14 14 14 20 29 40 43 45 54 61 67 75 82 90 88 83 98 100 99 84 74 95
32 37 38 31 27 28 31 42 36 34 29 31 42 53 32 27 64 70 26 26 28 27 23 23 25 32 31 29 33 43 43 46 48 57 60 64 71 77 81 86 88 92 96 97 98 100 99 100 100
32 32 35 35 31 34 28 33 37 32 30 23 34 39 36 49 60 72 49 24 28 32 33 37 37 38 40 38 44 45 46 54 60 65 70 70 72 85 84 87 90 94 97 100 100 99 100 93 99
33 33 36 42 43 42 32 32 29 31 29 28 24 34 40 52 60 61 70 42 26 27 28 31 34 34 37 40 42 50 54 60 67 70 72 73 85 86 68 76 82 94 79 89 100 100 93 99 99
36 33 36 58 83 63 41 31 23 29 28 27 28 29 34 43 52 59 60 67 45 26 27 29 30 34 37 42 46 52 58 59 64 68 73 76 83 88 84 79 83 97 97 99 100 95 100 100 99
36 39 33 65 70 72 48 30 22 26 24 25 30 34 36 37 42 52 54 63 64 51 30 32 31 32 35 38 51 56 67 68 81 79 74 80 87 89 84 98 94 98 98 93 94 99 99 100 99
32 38 35 42 74 45 23 23 25 26 26 28 26 30 35 43 46 45 51 59 69 68 53 35 38 35 37 36 40 46 56 66 69 72 72 84 86 86 80 88 97 96 93 100 96 99 99 99 98
32 40 46 35 31 46 52 38 39 30 28 26 28 30 34 38 29 25 48 62 66 74 78 78 56 46 45 47 48 51 60 67 79 85 83 76 77 77 71 78 90 97 100 89 98 95 98 99 97
30 32 42 39 42 46 47 39 34 30 26 27 30 33 34 37 42 22 19 22 69 78 84 95 98 86 69 63 77 71 74 82 72 71 72 74 67 65 63 76 84 97 97 88 100 99 99 100 100

GFSSGP_700_rhum_069.txt.gz
RH
8 9 9 18 25 30 25 22 18 17 23 30 33 29 26 30 40 48 64 60 64 70 75 70 96 100 93 79 69 56 54 54 38 17 6 4 6 9 12 15 16 16 16 15 16 19 21 22 22
9 11 14 31 30 29 26 21 18 17 23 26 33 35 31 42 66 56 61 61 50 48 43 44 59 97 100 88 78 72 64 61 49 19 7 6 9 12 15 17 16 17 17 19 22 26 26 28 28
12 17 21 28 27 30 25 15 18 17 16 17 27 45 45 50 61 79 70 55 51 42 44 47 49 46 100 85 71 73 62 62 56 22 10 8 11 15 18 18 19 19 22 25 30 35 35 33 31
16 28 28 25 20 18 17 16 17 17 19 22 37 41 54 56 68 72 85 53 54 49 46 52 86 98 98 94 84 76 74 71 73 26 12 9 12 17 19 20 21 26 28 34 39 39 44 44 43
25 28 29 28 24 20 18 18 20 19 28 36 32 35 40 44 53 52 72 70 62 54 58 67 81 95 98 99 83 92 88 99 80 26 13 11 15 20 21 23 28 31 38 43 43 45 48 49 47
20 29 32 28 23 18 19 20 27 38 45 39 40 40 34 45 57 52 68 74 71 63 67 79 91 89 98 96 97 100 99 99 75 18 13 13 18 24 25 29 32 38 48 46 46 51 53 52 50
27 27 26 23 19 17 30 26 26 32 37 36 34 43 66 57 51 63 65 71 67 61 77 73 67 73 68 100 99 99 99 95 42 15 14 19 27 27 31 35 37 47 51 53 51 58 59 55 57
29 27 25 20 18 20 24 21 23 27 36 38 44 60 80 65 58 74 71 68 65 64 75 69 64 72 76 84 97 99 98 77 33 23 22 30 32 33 38 37 44 52 58 59 62 60 58 62 61
28 30 23 21 20 21 19 20 24 31 34 43 44 41 50 49 53 46 72 72 72 70 73 83 76 79 79 83 97 98 100 84 61 36 34 33 34 41 43 44 48 60 61 66 64 61 63 66 54
28 24 20 20 20 20 18 22 25 32 34 46 43 42 47 53 51 54 60 73 74 73 70 72 69 78 76 72 93 95 96 83 66 68 69 38 40 42 46 51 49 59 62 60 66 62 65 53 55
30 26 22 21 20 18 23 23 24 32 40 48 62 41 42 43 47 51 49 69 76 70 60 60 74 91 83 78 82 90 96 96 91 91 43 46 44 47 46 48 49 54 50 63 67 62 54 47 57
27 26 22 21 18 20 20 23 31 32 41 63 56 54 43 28 45 57 62 70 75 70 67 65 97 100 99 85 98 97 100 85 86 49 54 55 49 53 55 48 56 61 67 71 62 46 43 42 39
24 26 22 23 21 22 21 22 26 31 35 42 54 52 36 42 43 59 86 82 76 74 69 92 90 100 91 96 100 99 99 76 89 70 58 53 58 60 54 53 51 72 75 73 56 51 45 47 46
24 28 25 25 24 23 22 24 29 30 33 37 44 40 37 35 37 66 72 85 83 81 84 96 92 99 95 100 100 100 99 98 79 64 62 67 65 62 57 54 60 78 75 76 60 48 43 50 48
34 35 31 26 23 23 24 28 30 32 37 38 47 38 42 36 38 70 60 91 97 90 95 96 100 100 100 98 98 100 99 87 71 69 80 71 67 58 51 50 61 79 78 78 71 57 47 50 49
34 33 31 19 23 25 25 32 32 32 36 42 45 48 43 30 27 32 32 51 88 100 100 99 99 98 95 96 90 100 99 74 76 77 72 64 62 53 50 53 66 81 77 80 81 72 54 45 45
29 36 29 24 24 24 30 33 33 42 45 55 53 73 57 32 23 26 24 36 60 74 89 89 98 96 97 93 100 100 98 84 76 70 64 61 58 53 52 53 61 71 78 81 90 84 75 56 51
33 35 34 28 28 32 31 35 34 44 45 58 63 76 78 45 27 31 26 24 28 40 74 99 98 98 99 98 100 100 99 74 61 58 58 58 55 54 51 50 57 62 70 84 87 88 81 76 60
35 35 31 24 27 30 34 30 30 36 44 52 56 71 81 72 50 30 30 26 22 25 36 65 48 51 56 47 56 63 53 52 53 54 55 54 51 49 49 49 53 63 70 81 87 86 83 88 80
36 35 30 32 32 30 28 26 29 39 42 54 56 63 66 67 44 49 35 24 27 30 30 35 34 32 34 35 40 40 44 45 45 48 50 50 48 47 51 59 69 74 76 77 86 94 92 99 96
35 31 29 28 30 33 31 30 38 38 47 54 62 68 64 61 39 37 34 18 18 24 27 30 30 32 32 32 34 43 45 45 46 46 47 46 47 51 60 69 82 72 63 76 88 92 95 97 99
33 29 28 32 33 29 30 35 32 34 39 43 57 55 59 62 41 37 22 18 15 13 17 19 22 21 20 20 18 24 32 34 36 38 40 39 45 52 56 66 70 68 71 78 85 91 98 100 100
32 32 35 34 36 30 29 39 39 40 38 41 40 50 55 50 26 20 22 24 22 22 19 14 13 12 12 15 16 15 18 22 27 32 38 50 58 64 67 72 76 79 83 93 96 89 99 100 100
31 32 34 35 36 43 31 40 42 38 32 35 33 43 49 46 26 23 26 30 26 29 30 28 25 27 30 31 34 36 40 38 39 49 54 60 64 68 73 79 84 83 82 85 90 87 98 98 100
31 33 41 51 60 59 44 49 40 34 34 31 31 34 37 32 28 34 30 23 26 25 31 32 32 32 35 38 39 42 42 49 57 60 58 67 69 71 78 83 87 93 88 98 96 89 97 92 99
32 32 39 60 78 70 43 43 32 29 27 30 27 31 32 38 39 43 45 38 42 24 27 32 32 33 34 34 37 44 52 53 58 66 65 66 70 74 79 89 95 94 89 86 80 88 97 97 100
32 35 33 46 72 87 61 39 32 29 28 27 26 34 39 44 48 55 53 54 48 55 41 28 28 31 33 36 37 42 49 56 60 60 64 67 72 78 90 92 86 80 73 87 98 100 99 86 89
33 37 41 56 97 97 56 54 30 25 25 25 29 32 33 38 50 53 54 52 56 56 60 61 39 30 31 33 35 37 40 58 68 67 78 80 80 97 65 83 80 78 76 82 89 81 100 80 84
34 33 35 50 48 73 66 49 30 28 35 29 26 31 32 38 42 47 53 57 54 55 60 65 68 55 42 39 35 36 39 45 60 70 86 94 97 94 85 87 74 64 68 67 78 96 80 99 96
33 30 32 46 47 44 47 47 35 33 28 26 29 30 31 33 31 26 36 51 61 66 64 63 67 73 58 57 57 69 64 61 87 99 98 90 81 70 71 63 55 50 52 66 99 100 97 74 99

GFSSGP_700_rhum_072.txt.gz
RH
7 7 9 12 18 23 23 19 19 22 21 39 35 30 35 40 39 49 66 62 76 73 82 81 70 64 79 98 90 72 64 48 26 15 7 5 5 5 8 11 12 13 12 12 13 14 15 16 17
7 8 12 24 21 26 22 15 19 27 28 31 34 41 37 38 35 45 44 54 68 74 80 82 80 74 60 82 98 89 76 62 31 15 6 5 4 6 8 12 14 14 14 14 16 17 18 19 21
8 10 22 25 26 23 21 18 19 29 30 28 27 27 34 39 48 52 65 65 58 70 79 76 61 81 85 71 81 99 85 69 38 13 5 6 7 8 11 14 15 16 16 19 21 22 26 27 29
9 16 27 27 23 20 23 22 23 31 20 17 16 21 33 32 41 45 48 52 61 52 71 71 80 77 79 94 86 99 94 77 48 14 6 9 11 12 16 15 17 19 21 24 31 33 33 34 37
14 28 30 28 24 23 22 31 40 34 21 19 18 24 25 25 36 38 44 53 44 57 55 87 82 80 100 100 95 99 99 94 66 29 12 12 14 17 17 18 20 23 28 35 38 40 36 38 40
15 27 28 25 22 21 26 37 29 22 23 30 30 30 36 42 50 45 48 64 66 51 54 89 93 99 99 100 99 98 100 95 74 72 20 13 21 21 20 21 26 31 38 41 43 42 41 42 42
13 29 25 26 21 20 22 27 21 23 27 32 34 39 43 45 44 42 60 76 72 60 63 84 91 92 84 97 82 99 99 96 70 12 16 23 24 22 23 27 32 42 44 43 48 50 47 39 36
21 31 25 24 24 22 24 23 24 28 33 32 42 45 43 46 49 40 65 64 69 70 76 80 84 68 83 79 96 100 100 89 44 21 26 29 27 28 30 34 39 49 49 51 54 57 52 49 37
28 32 20 20 21 20 22 25 23 27 36 40 37 44 44 46 47 44 43 66 66 71 75 74 77 74 81 78 77 92 96 94 58 34 32 32 31 36 38 38 47 55 56 58 59 60 59 61 36
29 30 20 22 22 22 21 23 23 30 39 39 37 41 42 41 46 44 42 48 66 70 71 78 77 78 82 78 71 92 100 95 88 53 41 38 42 42 42 43 49 57 62 63 67 62 63 42 26
29 31 27 26 23 22 19 21 21 26 33 34 34 37 42 30 28 44 46 51 72 85 77 68 70 82 83 81 84 99 100 96 89 95 86 55 51 43 40 42 48 60 64 70 73 57 41 37 41
29 28 28 26 26 24 20 22 22 23 26 27 31 33 37 21 19 29 60 76 78 87 75 65 65 94 96 96 82 98 93 94 96 86 86 67 50 53 45 50 57 54 53 53 56 43 38 41 43
26 25 24 28 29 25 24 24 22 24 27 29 31 37 36 22 20 40 75 88 96 87 78 69 79 99 100 100 91 94 95 94 94 99 91 66 57 51 52 52 55 51 51 60 50 42 39 40 40
24 24 26 28 26 26 24 23 24 27 30 32 35 37 31 18 23 43 94 71 92 96 92 74 94 97 97 100 100 99 89 95 98 77 64 62 59 56 52 53 51 50 65 67 55 44 40 42 41
22 23 26 22 23 23 23 26 25 29 31 34 38 41 24 22 22 21 50 63 79 97 90 95 100 98 97 91 100 99 100 97 67 60 61 63 58 57 54 53 52 56 63 72 61 50 41 39 42
25 29 32 16 21 22 24 27 25 30 32 36 40 40 31 25 21 22 26 48 82 97 99 94 99 99 100 100 100 99 98 88 78 83 63 61 60 58 59 54 51 65 61 70 71 61 54 45 41
22 24 18 30 30 30 28 27 30 33 34 38 42 44 28 22 27 23 22 30 50 90 97 100 100 100 100 99 100 98 99 98 93 72 66 64 60 60 58 53 52 65 68 70 75 74 72 62 54
16 25 28 35 32 30 27 27 34 36 38 40 43 38 36 28 36 36 26 26 25 62 99 100 99 96 99 100 98 100 100 99 85 76 68 66 64 62 55 51 50 60 62 65 73 76 74 72 71
17 24 37 36 32 34 31 32 32 31 39 36 42 44 35 30 36 42 35 26 25 28 71 98 99 100 100 98 98 99 97 98 84 78 75 67 63 57 52 48 49 54 54 58 67 73 72 76 87
20 36 37 36 33 31 31 29 28 30 39 44 45 43 36 33 32 41 38 24 27 25 28 38 42 51 62 91 91 97 99 89 71 64 62 61 58 49 49 48 49 49 59 67 67 70 78 87 94
35 37 36 36 28 30 34 34 32 32 39 45 49 52 47 49 49 35 23 18 24 26 27 28 30 29 31 34 41 59 79 63 50 46 53 52 52 49 45 47 54 66 73 69 66 70 88 99 98
36 34 35 31 32 36 32 36 34 34 37 44 38 46 44 38 42 32 19 16 17 21 22 29 30 30 28 27 32 34 36 38 41 46 47 51 50 45 44 52 60 66 70 73 75 82 98 99 98
38 36 33 34 36 38 35 35 34 37 39 39 39 43 36 36 28 21 19 19 18 14 12 12 20 23 25 21 16 25 32 33 38 43 44 46 44 43 47 52 60 68 74 79 86 96 99 100 99
37 36 33 36 34 44 37 37 35 28 34 37 43 39 32 33 30 28 27 23 23 23 21 16 14 13 13 19 19 18 21 27 33 36 39 42 48 51 53 64 72 86 86 88 85 90 94 96 98
38 36 40 45 57 60 43 52 39 30 33 32 34 38 33 33 34 29 25 19 20 21 26 26 26 25 26 29 31 33 32 24 35 35 39 48 55 61 66 69 80 88 90 93 96 93 94 100 99
34 33 38 53 68 61 43 44 32 34 33 34 32 34 34 36 37 33 38 33 24 20 22 26 27 27 28 30 30 33 36 39 45 50 54 56 60 67 71 78 79 88 94 100 100 88 92 94 97
33 33 32 38 74 80 47 41 34 31 30 35 32 29 29 34 38 39 42 42 42 47 41 25 24 27 30 29 32 35 39 45 49 52 55 62 65 72 73 74 80 97 96 99 78 98 96 96 99
33 30 38 48 79 83 59 55 38 30 30 29 27 27 32 36 40 44 46 50 51 51 57 58 60 49 38 35 35 36 38 41 54 64 69 76 74 80 85 98 95 83 94 92 95 94 89 99 84
34 34 38 40 50 80 74 46 33 32 28 25 26 29 33 38 39 48 50 56 56 56 59 57 61 66 67 58 45 50 49 44 47 62 75 86 99 100 100 82 93 97 83 81 64 81 94 100 75
36 35 32 47 70 68 67 47 34 30 30 31 28 26 27 31 38 43 49 47 49 47 52 57 64 67 72 65 62 69 78 88 95 80 83 97 91 94 64 89 92 80 75 72 63 85 73 99 98

GFSSGP_700_rhum_075.txt.gz
RH
7 7 7 8 12 18 20 20 22 22 29 38 41 30 23 24 28 34 36 44 44 64 71 79 79 100 85 72 65 70 67 49 48 45 24 16 8 6 5 4 6 8 9 9 10 11 14 16 16
7 7 8 11 19 24 21 22 22 23 31 35 37 30 26 27 31 33 52 51 47 60 64 85 84 96 100 95 78 70 69 64 50 33 20 8 6 7 6 7 8 11 11 10 12 14 16 20 20
8 8 12 16 22 22 22 22 23 23 34 38 34 28 30 31 31 35 49 51 54 62 66 70 70 100 100 100 99 94 75 81 73 35 13 7 17 12 12 12 12 12 12 13 15 19 19 23 24
9 12 17 16 19 22 23 22 30 22 32 45 32 32 28 31 37 35 32 44 51 52 65 70 73 69 69 88 94 100 79 86 97 41 8 7 20 17 17 15 13 13 13 16 20 24 28 28 29
10 16 19 21 21 22 21 36 32 29 39 39 37 31 34 37 43 57 54 50 50 59 68 63 70 63 65 70 86 86 90 85 98 63 7 11 17 20 19 17 14 14 17 20 26 31 35 36 37
12 16 22 24 22 20 22 27 44 39 41 36 31 30 37 42 46 43 52 54 54 62 67 68 65 74 68 77 90 94 97 97 98 48 11 18 21 24 20 18 17 20 22 24 33 37 37 42 40
11 18 22 23 20 21 21 23 30 46 28 29 31 34 38 42 46 46 49 68 69 73 83 73 71 84 84 78 85 93 93 99 98 50 19 23 23 24 20 24 24 29 30 33 36 38 42 45 48
14 27 23 20 21 20 21 22 30 31 29 30 36 33 38 42 41 42 49 47 74 66 71 74 78 95 76 89 91 99 99 99 93 49 31 36 55 30 31 35 32 38 43 38 37 44 46 48 48
21 30 18 21 20 22 22 24 26 30 27 29 37 34 33 40 42 39 40 43 44 71 75 79 79 73 63 92 96 95 100 100 99 89 78 53 35 37 41 39 40 45 47 46 46 45 42 48 40
24 25 17 21 26 27 25 26 29 24 24 26 30 33 36 43 41 30 32 34 39 51 77 81 79 72 85 94 85 81 99 100 100 96 42 31 33 46 49 50 53 50 51 57 57 48 44 37 30
29 19 25 24 27 27 27 24 25 24 24 25 36 28 33 40 34 26 36 45 46 43 66 83 80 81 83 90 93 92 100 100 98 82 38 35 40 47 47 51 57 57 60 61 55 53 39 33 41
31 26 26 26 27 28 29 25 25 24 23 24 26 29 31 36 29 22 34 31 52 64 68 75 71 72 84 89 88 100 100 100 100 85 48 44 55 50 56 55 58 54 57 54 50 45 36 29 38
24 24 28 28 25 28 29 27 25 24 24 25 29 32 36 31 22 22 18 57 57 77 85 75 71 78 89 86 82 81 99 100 99 91 66 60 50 61 72 64 61 57 53 53 48 42 32 30 38
20 26 26 26 25 28 30 26 25 24 23 25 31 35 41 35 26 22 17 42 98 86 88 79 84 90 91 95 88 89 98 98 98 95 70 50 71 82 67 64 59 54 53 53 51 40 32 38 40
28 23 22 20 20 25 25 23 22 25 25 25 31 35 40 37 28 24 17 35 63 99 93 97 100 92 98 100 97 99 100 98 99 100 99 89 68 63 60 57 60 57 49 57 56 44 39 36 33
26 24 18 13 22 32 28 24 24 25 27 27 33 38 46 42 34 23 19 24 49 99 92 100 97 98 98 100 98 100 100 100 100 100 98 71 67 62 58 54 52 52 59 61 68 59 48 43 38
26 25 17 14 29 33 34 32 26 25 31 34 37 43 47 39 39 24 19 18 35 84 99 97 95 98 100 100 99 100 100 100 100 81 79 70 64 59 58 54 52 53 58 68 76 73 67 63 58
25 23 17 16 28 35 33 32 27 30 33 34 38 45 44 42 52 31 18 15 24 66 99 100 94 100 100 100 100 100 100 100 90 72 76 64 62 60 58 58 57 54 56 66 68 77 79 82 80
22 24 23 34 35 37 34 33 33 35 28 32 39 41 42 47 48 36 19 13 25 52 94 92 98 98 99 100 100 100 100 98 84 83 83 64 61 62 59 59 56 52 58 66 65 72 72 81 84
29 29 20 26 34 36 33 34 32 30 30 32 42 39 42 42 51 38 21 15 25 27 57 86 92 96 96 97 100 100 98 91 89 93 72 64 62 61 61 57 52 53 55 62 61 66 76 80 83
27 26 19 35 34 34 32 31 34 34 32 33 35 37 39 37 56 48 20 14 22 25 24 27 37 69 97 100 100 99 100 97 97 82 71 68 65 64 62 55 54 55 51 52 57 75 72 71 84
28 13 32 36 39 40 34 40 31 30 31 36 35 35 31 35 39 25 17 15 19 28 26 20 17 24 41 57 71 91 93 96 92 80 67 66 63 60 54 52 52 50 51 60 74 81 76 78 89
21 14 34 37 39 39 37 40 36 31 33 34 34 30 32 34 29 19 20 19 18 19 24 27 27 24 20 24 25 32 45 55 58 54 48 48 50 49 46 48 48 49 60 63 66 69 75 90 91
22 34 42 42 44 50 37 38 36 34 32 29 32 31 30 33 28 31 23 20 20 19 17 15 15 17 20 17 18 26 30 37 41 41 43 45 46 47 46 47 47 52 57 66 73 82 85 86 89
38 44 48 50 57 61 36 48 36 29 34 35 35 31 30 34 30 31 21 19 19 21 24 23 20 20 19 18 19 18 20 28 33 36 38 41 42 42 44 44 48 58 61 80 89 95 97 95 95
39 42 47 55 63 53 38 53 35 31 36 34 32 31 31 34 33 31 29 26 21 21 24 27 27 26 25 26 27 28 28 25 24 28 34 36 38 40 40 44 57 57 70 88 94 98 96 97 98
38 39 36 41 73 77 43 36 30 29 33 31 29 33 33 32 32 33 37 38 39 36 31 24 25 30 30 29 30 31 32 34 37 40 42 44 48 51 53 50 53 73 77 79 95 98 99 88 98
37 35 40 45 79 77 58 50 39 27 34 30 31 33 30 30 30 32 39 42 45 48 52 56 58 42 31 33 34 35 36 37 40 43 50 54 58 66 77 87 100 100 89 90 85 94 98 99 100
39 38 36 36 41 67 76 48 32 32 33 30 29 28 26 25 32 36 40 43 48 53 53 54 62 62 54 57 54 43 39 39 41 44 47 62 75 79 99 99 99 98 99 91 92 98 92 95 89
38 35 34 40 69 55 52 52 35 37 32 30 27 26 29 26 27 31 35 39 44 52 50 49 53 60 65 61 70 98 88 66 72 68 71 75 74 74 92 71 85 78 79 91 84 84 90 85 96

GFSSGP_700_rhum_081.txt.gz
RH
7 7 7 7 8 13 20 21 21 24 25 29 35 43 45 44 36 30 26 25 29 41 56 73 86 86 80 84 68 64 67 67 62 59 51 59 60 75 81 49 12 9 11 14 14 12 12 12 15
7 7 8 8 11 20 21 21 28 27 25 24 28 33 37 32 30 33 35 37 45 56 56 52 77 88 91 88 76 68 69 76 79 62 56 55 68 72 68 32 11 10 14 16 13 14 14 16 17
8 8 8 8 16 19 20 23 34 29 22 26 26 31 32 29 31 32 34 39 40 53 55 51 73 98 99 93 80 77 85 97 97 90 95 70 79 57 55 25 9 12 17 18 15 16 16 19 20
8 10 10 11 12 19 21 23 33 32 27 28 30 28 28 30 30 34 38 38 39 45 51 58 58 74 85 97 85 82 76 67 89 100 96 92 79 60 37 25 9 14 20 17 19 19 21 21 23
10 10 10 10 9 17 22 23 32 32 32 26 29 28 30 31 29 31 34 37 38 42 48 60 76 65 72 81 90 85 71 77 100 97 91 77 67 44 23 12 10 16 20 21 23 23 25 25 26
11 12 12 10 8 18 22 23 25 32 29 30 30 30 28 32 31 33 35 40 40 44 47 61 74 82 85 85 86 76 80 89 89 93 88 78 61 35 18 17 14 20 19 24 25 29 30 32 33
11 14 12 9 9 17 22 24 23 28 28 25 25 31 26 29 37 35 37 44 44 48 44 63 79 83 97 88 81 80 97 100 88 86 92 74 75 49 32 16 21 22 23 26 30 36 40 38 36
12 16 14 11 13 20 22 25 24 23 25 26 24 25 24 33 35 30 35 42 45 47 41 60 78 96 97 92 84 84 88 88 90 100 98 96 86 56 43 43 26 24 26 31 39 44 42 41 39
14 18 13 11 12 19 22 25 25 23 22 21 23 22 27 31 34 35 37 38 28 28 44 53 75 87 84 84 98 90 88 97 98 99 98 97 99 60 20 37 26 28 32 40 47 48 46 42 41
15 16 12 12 14 20 22 27 27 27 24 23 21 24 27 33 36 36 39 35 21 19 34 50 75 85 85 95 96 87 98 97 98 99 99 98 98 36 27 30 31 33 39 49 53 54 50 45 42
15 14 13 13 17 21 23 26 26 28 24 24 24 24 26 27 35 37 41 29 20 19 24 48 64 79 81 92 85 93 100 98 98 100 100 100 90 36 41 38 38 38 51 56 58 59 53 38 37
16 15 15 13 18 23 26 27 26 27 24 24 26 26 25 27 34 39 43 26 22 18 34 60 59 83 89 95 99 96 97 95 99 100 99 99 78 54 38 39 41 53 60 66 64 56 42 37 35
16 16 17 16 18 19 23 23 27 24 25 25 25 24 24 27 36 42 41 25 19 19 62 90 79 95 90 98 98 90 87 99 100 100 100 65 62 43 45 54 49 61 65 73 61 51 46 39 37
22 20 20 18 15 17 17 22 26 16 22 23 23 23 26 30 38 46 38 27 18 19 49 92 79 97 86 97 92 95 100 100 100 100 84 63 52 52 57 67 70 66 66 70 60 52 40 37 42
27 24 22 19 17 14 16 25 24 30 29 28 24 25 27 34 41 49 40 29 20 18 38 85 84 86 92 90 91 100 100 100 100 99 82 71 65 64 81 90 83 91 91 79 75 47 41 41 44
29 28 25 22 17 17 18 24 26 32 31 28 28 28 30 38 47 48 40 31 21 20 38 96 89 88 98 86 96 100 99 100 99 98 92 80 88 89 95 86 87 96 81 78 61 53 47 46 44
33 34 27 24 21 17 20 24 30 32 31 31 31 30 34 40 49 47 39 34 24 23 47 86 98 100 91 82 98 99 100 100 100 99 95 93 93 94 97 92 96 86 88 92 89 89 75 68 59
36 34 26 23 21 17 22 24 33 32 33 33 33 32 36 44 50 44 43 36 24 24 50 96 99 95 96 96 98 100 100 100 100 96 96 99 98 91 89 81 76 93 96 100 98 94 91 97 95
33 30 28 26 23 28 22 28 34 31 32 33 34 32 39 45 43 45 47 31 19 26 49 94 99 100 98 100 99 100 100 100 99 97 99 97 92 91 97 86 98 98 100 100 94 94 89 84 90
32 30 24 26 26 27 17 23 34 30 32 33 32 34 36 42 45 48 44 24 18 25 53 90 97 98 99 99 100 100 100 100 100 98 96 95 89 96 86 90 86 88 82 74 84 86 89 82 79
29 29 26 31 31 29 23 19 33 32 30 33 33 32 32 40 45 45 42 21 19 23 37 82 88 97 99 98 100 100 100 100 99 99 99 98 86 85 82 84 87 73 64 61 61 63 70 72 70
28 21 29 31 40 39 33 37 35 30 29 31 32 30 32 38 38 34 26 24 16 21 22 53 91 93 98 98 99 100 100 99 99 99 99 96 85 76 79 87 76 67 62 59 56 58 61 63 56
28 35 36 36 39 45 34 40 38 35 31 27 26 26 29 34 41 37 22 19 14 18 17 18 37 65 91 98 99 99 99 100 100 100 100 96 77 81 80 75 69 65 63 60 57 56 57 55 63
36 42 44 46 46 50 36 43 41 36 29 31 30 33 30 32 36 37 22 16 15 13 17 18 16 32 61 90 92 90 100 100 100 100 93 89 73 70 72 70 66 63 62 58 56 57 57 56 55
48 50 49 59 62 42 34 46 36 33 33 30 31 32 36 31 34 38 31 18 17 18 17 18 19 17 24 35 61 83 99 96 92 100 84 85 76 65 63 64 63 60 59 61 64 61 58 58 71
38 45 45 43 50 38 42 49 40 33 28 26 23 28 38 38 29 30 27 26 20 20 21 21 20 21 20 24 27 30 48 66 82 90 88 86 78 63 61 63 64 63 63 63 64 60 60 60 58
46 52 39 44 61 67 52 43 37 34 32 29 29 27 31 35 28 29 32 31 31 24 21 23 24 23 22 22 24 28 29 31 32 36 38 43 48 52 59 56 59 62 61 58 60 60 60 56 57
41 40 57 56 51 52 50 53 36 28 27 30 25 28 31 32 31 30 33 37 32 36 33 26 22 26 28 25 26 26 26 29 32 34 35 36 38 40 42 44 48 52 57 63 66 60 56 56 57
45 47 47 48 45 43 47 45 34 34 36 37 33 32 29 31 31 31 31 36 40 43 45 48 48 35 26 27 29 29 29 28 27 28 29 30 34 38 40 43 46 51 54 55 52 83 90 92 93
45 37 42 52 63 54 48 42 33 34 32 30 35 35 33 30 24 27 31 36 40 43 48 50 54 50 50 48 37 30 33 31 30 29 29 28 32 31 31 32 37 43 48 77 95 97 98 99 98

GFSSGP_700_rhum_087.txt.gz
RH
12 9 7 9 25 18 12 11 13 16 18 22 28 29 33 37 32 40 40 21 21 26 28 27 37 54 76 72 76 82 69 71 73 76 84 91 89 87 78 70 75 26 9 12 11 13 12 10 10
12 9 8 28 18 12 9 13 17 17 20 24 29 29 36 36 46 57 29 25 30 26 31 34 32 49 79 79 81 89 79 76 79 82 82 93 95 89 88 77 60 36 10 12 12 13 12 11 12
12 8 33 26 18 12 11 15 17 19 24 23 25 37 42 40 52 39 25 24 28 28 33 33 36 57 94 92 92 96 92 84 86 82 90 92 100 92 85 75 60 25 12 15 15 13 13 15 16
11 16 26 17 13 12 14 15 19 22 24 25 24 30 44 28 32 26 28 25 29 31 35 38 43 46 71 96 98 91 94 99 99 99 99 92 99 98 85 68 52 22 13 19 16 14 16 17 18
10 28 23 18 16 13 14 17 20 21 24 31 30 26 38 42 27 28 28 25 29 33 35 40 45 45 44 63 76 74 93 92 97 98 99 95 91 97 93 66 48 19 11 14 15 17 19 20 20
27 24 21 16 13 13 14 17 21 22 25 30 40 31 33 42 23 21 24 26 31 35 36 40 44 42 42 55 62 61 79 96 89 93 94 91 95 98 98 79 45 15 19 18 16 20 21 22 24
30 24 22 18 14 13 13 17 23 24 26 25 36 33 37 36 25 22 25 26 31 39 40 39 39 29 37 53 68 70 76 77 97 89 100 93 98 93 92 92 41 17 28 21 20 22 24 26 26
29 24 23 20 16 14 13 17 22 25 24 38 39 32 27 62 24 23 23 26 30 33 37 39 26 23 33 52 74 79 90 98 99 98 96 88 99 94 80 42 55 36 33 20 23 25 28 32 32
34 27 23 19 16 16 14 21 22 27 28 26 36 38 37 27 20 21 23 24 24 32 38 38 20 18 37 56 68 85 97 99 99 99 99 99 99 98 73 26 47 35 28 24 26 29 36 37 34
33 26 23 20 18 17 17 20 22 21 23 24 29 37 32 22 22 22 23 25 26 30 40 34 19 18 27 55 72 94 93 88 100 98 99 98 100 98 92 42 64 41 28 27 32 39 40 40 39
30 28 24 21 21 18 18 18 20 23 22 22 24 27 34 42 25 24 24 26 31 33 42 27 16 15 28 52 72 87 81 99 99 91 98 97 100 99 88 62 62 48 31 30 40 43 46 45 43
28 28 25 23 20 20 19 19 19 21 22 24 26 29 37 39 24 24 24 28 34 40 41 20 14 17 42 66 76 90 79 86 82 98 99 100 100 97 98 80 57 40 32 35 45 49 51 48 43
28 26 25 20 24 23 22 23 22 22 22 23 25 27 28 22 23 24 28 34 38 42 39 19 15 20 73 99 84 99 86 86 87 96 100 98 99 100 97 96 70 56 34 44 52 55 51 40 46
28 25 27 27 25 27 27 27 25 21 21 25 26 29 37 29 26 26 29 36 43 42 23 21 16 21 55 66 97 92 97 98 97 100 94 100 100 100 98 99 61 51 39 54 62 58 41 40 44
34 33 32 31 30 29 29 28 28 25 22 20 29 34 36 45 26 27 31 37 45 43 33 24 17 20 45 56 89 96 96 92 91 94 94 97 99 100 100 97 78 40 52 62 66 49 43 46 42
40 37 35 31 28 26 28 28 24 19 19 20 33 37 47 27 28 30 32 40 44 35 26 24 18 23 45 55 81 88 81 84 82 96 92 100 100 100 99 97 73 68 58 72 61 47 45 45 43
39 37 32 28 27 28 26 25 23 20 28 27 33 36 51 30 29 31 36 41 38 26 26 24 20 30 54 76 85 82 85 78 78 92 99 100 100 98 100 98 89 70 90 80 61 55 52 47 38
33 34 28 27 27 25 27 25 25 21 27 28 32 36 50 49 33 34 36 36 32 24 20 18 28 53 90 90 88 82 82 88 98 100 100 100 100 100 98 96 99 96 97 98 98 92 84 52 46
31 28 24 26 26 28 29 28 26 23 20 20 30 34 42 57 62 33 37 37 37 21 13 22 48 81 99 96 89 93 93 98 99 100 100 100 100 99 92 98 94 97 99 91 93 92 61 54 54
38 31 30 29 29 29 30 30 28 26 24 20 21 30 39 54 48 32 38 41 39 19 13 23 60 83 96 96 96 99 100 100 100 100 99 96 90 93 95 95 91 98 94 86 88 79 68 76 86
39 38 37 33 30 28 31 31 29 27 27 26 20 27 30 44 59 31 37 38 36 18 14 22 60 75 80 90 98 100 99 100 100 99 99 84 75 92 92 94 98 96 97 96 99 88 86 91 89
41 40 37 35 32 30 28 26 26 24 20 19 20 30 33 37 61 32 35 30 20 14 13 20 57 76 85 94 98 98 98 99 100 100 98 100 98 96 96 95 99 100 96 99 99 100 97 100 95
42 39 38 36 30 31 30 27 26 27 23 21 25 29 34 39 54 53 36 36 18 13 12 15 33 68 73 92 100 99 99 100 100 100 99 99 98 99 99 100 99 99 99 100 98 99 96 88 75
49 41 39 36 33 36 33 31 28 25 21 25 26 25 27 36 50 64 36 36 23 13 12 14 21 38 71 86 96 98 99 99 100 99 99 92 97 99 97 92 97 100 98 95 82 77 66 62 62
50 43 38 42 41 38 29 27 28 24 24 25 26 27 28 34 47 65 43 32 21 14 13 17 19 23 46 82 92 98 99 99 100 100 100 99 95 99 99 90 93 95 92 76 72 67 65 64 65
43 44 39 43 38 32 27 27 26 25 26 25 28 28 33 40 48 61 55 29 22 15 16 19 19 21 24 46 82 93 94 86 97 99 100 100 100 100 99 95 96 78 88 74 72 70 70 73 73
29 41 37 34 34 39 36 31 30 29 29 31 31 30 32 34 44 57 67 28 22 15 16 18 20 20 21 23 38 66 83 92 90 97 96 99 100 99 99 98 90 85 80 73 73 71 72 72 70
24 17 29 32 39 42 27 25 23 28 30 31 31 33 34 31 37 55 50 30 22 19 18 18 20 21 22 22 24 28 38 57 76 98 96 94 95 100 99 98 76 91 78 72 73 69 68 69 62
30 25 28 33 32 32 32 21 26 28 30 30 36 39 40 39 36 49 47 30 22 23 22 20 19 20 19 20 23 24 25 29 43 49 62 71 87 85 77 73 71 76 69 68 69 65 66 62 58
32 32 30 33 34 27 28 29 30 33 33 36 36 44 43 35 45 49 54 33 24 28 30 23 21 20 21 21 22 23 27 28 29 30 34 42 45 57 66 81 72 66 63 64 63 58 54 58 59

GFSSGP_700_rhum_093.txt.gz
RH
11 12 10 10 20 23 20 15 17 15 15 16 15 15 20 24 31 33 45 51 43 32 24 19 18 17 16 34 84 79 73 76 75 68 76 80 88 86 76 65 47 12 6 6 7 9 11 14 15
12 13 10 20 27 27 17 16 18 16 17 18 17 18 20 21 38 41 45 45 29 18 20 20 22 24 22 27 57 89 86 80 85 75 81 89 92 91 90 80 73 36 7 11 14 14 14 14 12
13 13 12 31 30 21 18 17 16 16 17 18 17 20 24 38 38 37 35 30 19 21 22 21 25 25 26 28 32 66 98 94 86 89 78 92 97 100 99 88 75 53 10 12 16 15 12 10 11
15 12 15 31 28 13 23 19 16 16 17 18 21 21 26 32 31 35 36 22 19 22 25 29 32 33 30 30 35 36 60 92 92 88 89 90 78 98 99 94 86 55 18 10 14 15 14 13 13
15 18 26 31 24 16 16 17 14 14 14 17 24 23 23 35 39 42 40 34 27 18 23 28 30 34 35 36 33 36 53 85 84 81 79 84 89 99 98 98 81 60 21 12 16 16 16 18 19
15 23 28 28 24 20 20 18 14 13 14 16 23 24 26 32 33 32 37 36 26 23 25 28 32 32 36 36 37 31 34 39 47 66 75 87 84 96 96 99 84 57 23 16 19 16 19 21 23
9 28 26 26 23 22 21 19 14 13 15 15 22 27 27 35 36 38 38 35 22 24 24 22 24 26 32 38 37 26 21 25 40 56 68 76 78 83 99 98 98 70 41 25 21 19 23 22 22
11 32 31 27 27 22 18 17 14 15 17 19 28 30 34 35 32 37 38 34 28 21 20 20 24 26 31 39 27 18 17 22 45 63 74 73 66 92 99 97 97 63 74 52 23 24 26 27 27
26 40 32 18 24 20 21 19 16 16 18 18 22 26 25 26 30 32 33 34 32 28 21 23 28 30 36 37 20 17 17 19 48 69 75 77 86 92 100 97 96 61 32 49 54 26 27 28 28
30 38 22 18 22 23 22 21 17 16 18 20 21 23 24 27 29 32 36 40 31 19 22 27 33 36 39 23 16 14 14 24 51 73 82 90 99 98 100 98 99 96 38 38 25 24 25 26 25
28 31 16 20 23 26 25 23 20 17 18 18 19 22 21 24 29 32 32 29 18 22 26 31 36 39 37 20 16 16 22 33 65 88 88 97 100 95 99 100 97 97 43 32 28 28 26 27 29
39 34 32 28 27 26 26 25 22 20 19 18 18 20 22 23 24 24 26 26 19 23 27 30 35 41 32 24 18 16 37 48 71 90 88 98 97 97 98 100 98 52 39 30 27 27 29 33 32
43 39 35 30 28 27 26 25 22 21 19 19 18 19 21 22 23 25 27 26 28 24 28 28 35 41 38 24 19 17 40 62 77 92 99 97 99 98 100 98 97 40 40 32 28 31 36 35 35
42 42 38 34 30 28 27 26 24 20 22 24 24 22 21 21 22 23 23 28 36 28 28 30 39 38 27 24 21 17 74 67 85 90 100 98 99 98 98 98 97 60 41 33 32 38 39 40 38
39 37 36 35 33 30 28 25 25 24 25 26 26 26 24 22 22 26 29 32 35 28 27 33 36 23 18 22 20 17 40 63 77 92 98 99 95 96 100 99 86 71 38 31 36 41 43 45 41
45 44 41 36 32 30 30 30 27 28 28 26 26 25 26 24 20 27 30 38 31 26 28 34 28 22 13 22 20 19 35 74 82 98 97 90 95 98 97 99 99 60 35 32 42 45 50 50 44
48 50 43 40 38 36 33 31 32 29 28 26 25 20 24 22 22 31 36 41 29 27 32 35 29 18 10 13 21 31 45 61 89 94 100 90 99 96 100 98 100 93 53 39 48 51 57 50 49
54 46 43 43 36 34 34 33 31 28 27 24 25 23 20 22 31 34 39 39 30 29 34 36 28 14 10 18 41 57 70 75 82 100 99 98 100 87 98 99 100 98 74 56 50 62 56 51 49
43 44 41 39 37 33 33 35 36 29 27 26 25 25 23 22 28 32 39 39 39 32 35 37 25 12 14 34 64 81 99 94 84 87 81 92 94 98 99 99 100 97 54 42 62 66 54 64 63
23 27 31 34 32 32 32 33 32 33 29 28 26 26 26 21 30 33 33 36 36 31 34 28 21 11 16 48 69 81 91 85 78 76 79 95 83 95 100 100 99 98 92 67 74 82 84 89 82
18 23 29 32 34 39 42 41 35 32 30 28 27 25 26 25 24 30 33 38 38 33 33 21 17 12 17 45 64 70 75 74 81 65 75 97 96 94 100 100 100 100 98 85 73 83 93 84 85
21 22 21 26 37 49 50 75 54 38 35 29 27 26 25 26 23 23 31 37 41 39 33 22 12 12 17 30 64 75 75 79 71 74 93 99 100 100 100 100 100 100 98 83 80 93 89 99 94
30 31 23 32 39 42 64 83 73 44 36 32 28 25 26 26 24 24 34 39 43 42 34 21 10 13 17 22 61 69 82 80 95 99 99 100 100 100 100 100 100 99 99 98 96 98 91 98 84
31 31 39 39 41 79 73 76 68 45 34 33 26 25 25 25 26 22 28 33 41 44 34 20 11 15 16 19 49 82 87 90 96 100 99 100 99 99 100 100 100 100 100 100 99 99 98 86 92
36 36 52 67 69 71 51 64 70 40 31 35 27 28 25 21 21 21 27 31 37 41 32 14 12 16 15 17 42 80 85 100 100 100 100 85 86 90 99 100 100 100 97 99 99 99 87 92 82
42 39 52 68 82 85 61 73 64 55 44 36 28 25 24 24 26 30 34 36 37 39 33 12 12 15 15 16 37 70 88 99 100 98 90 80 93 81 77 89 98 99 98 100 96 97 100 98 94
43 44 40 47 47 57 56 46 46 48 43 31 27 26 26 26 30 32 35 36 37 38 34 14 13 14 15 16 19 48 77 89 94 100 96 94 99 96 80 77 81 76 82 88 96 95 90 92 89
40 38 45 51 60 57 41 34 51 48 54 47 27 27 26 29 32 35 36 35 34 38 40 17 16 16 16 16 18 23 52 70 84 93 93 95 96 100 84 74 69 72 78 98 99 100 96 92 85
24 33 47 46 51 59 52 39 43 58 50 46 40 31 31 31 37 39 35 36 36 38 41 28 18 19 21 18 17 20 21 36 65 78 89 86 83 99 91 84 80 77 82 95 99 98 85 85 77
22 27 35 31 35 36 36 37 65 48 67 62 49 48 36 34 35 37 42 38 33 36 34 32 19 22 21 20 19 20 22 21 22 29 53 81 71 88 100 98 94 93 89 95 95 97 85 81 79